Time,TemperatureF,DewpointF,PressureIn,WindDirection,WindDirectionDegrees,WindSpeedMPH,WindSpeedGustMPH,Humidity,HourlyPrecipIn,Conditions,Clouds,dailyrainin,SoftwareType,DateUTC
2013-08-19 00:00:00,71.8,62.7,30.04,SE,135,4.0,6.0,73,0.00,,---,0.00,VWS V14.01,2013-08-19 05:00:00,
2013-08-19 00:01:00,71.8,62.7,30.04,SE,146,5.0,5.0,73,0.00,,SKC,0.00,VWS V14.01,2013-08-19 05:01:00,
2013-08-19 00:03:00,71.8,62.7,30.04,SE,146,4.0,5.0,73,0.00,,SKC,0.00,VWS V14.01,2013-08-19 05:03:00,
2013-08-19 00:06:00,71.8,62.7,30.04,SE,146,4.0,5.0,73,0.00,,SKC,0.00,VWS V14.01,2013-08-19 05:06:00,
2013-08-19 00:07:00,71.8,62.7,30.04,SE,146,5.0,5.0,73,0.00,,SKC,0.00,VWS V14.01,2013-08-19 05:07:00,
2013-08-19 00:08:00,71.8,62.7,30.04,SE,139,4.0,6.0,73,0.00,,SKC,0.00,VWS V14.01,2013-08-19 05:08:00,
2013-08-19 00:10:00,71.8,62.7,30.04,SE,135,4.0,6.0,73,0.00,,---,0.00,VWS V14.01,2013-08-19 05:10:00,
2013-08-19 00:11:00,71.8,62.7,30.04,SE,135,3.0,3.0,73,0.00,,SKC,0.00,VWS V14.01,2013-08-19 05:11:00,
2013-08-19 00:12:00,71.8,62.7,30.04,SE,135,2.0,3.0,73,0.00,,SKC,0.00,VWS V14.01,2013-08-19 05:12:00,
2013-08-19 00:13:00,71.8,62.7,30.04,SE,135,3.0,4.0,73,0.00,,SKC,0.00,VWS V14.01,2013-08-19 05:13:00,
2013-08-19 00:16:00,71.6,62.5,30.04,SE,133,4.0,5.0,73,0.00,,SKC,0.00,VWS V14.01,2013-08-19 05:16:00,
2013-08-19 00:17:00,71.6,62.5,30.04,SE,133,4.0,5.0,73,0.00,,SKC,0.00,VWS V14.01,2013-08-19 05:17:00,
2013-08-19 00:18:00,71.6,62.5,30.04,SE,132,5.0,5.0,73,0.00,,SKC,0.00,VWS V14.01,2013-08-19 05:18:00,
2013-08-19 00:20:00,71.6,62.5,30.04,SE,135,4.0,5.0,73,0.00,,---,0.00,VWS V14.01,2013-08-19 05:20:00,
2013-08-19 00:21:00,71.6,62.5,30.04,SE,131,4.0,4.0,73,0.00,,SKC,0.00,VWS V14.01,2013-08-19 05:21:00,
2013-08-19 00:22:00,71.6,62.5,30.04,SE,131,3.0,4.0,73,0.00,,SKC,0.00,VWS V14.01,2013-08-19 05:22:00,
2013-08-19 00:23:00,71.6,62.5,30.04,SE,131,2.0,4.0,73,0.00,,SKC,0.00,VWS V14.01,2013-08-19 05:23:00,
2013-08-19 00:26:00,71.5,62.4,30.04,SE,131,4.0,5.0,73,0.00,,SKC,0.00,VWS V14.01,2013-08-19 05:26:00,
2013-08-19 00:27:00,71.5,62.4,30.04,SE,129,5.0,5.0,73,0.00,,SKC,0.00,VWS V14.01,2013-08-19 05:27:00,
2013-08-19 00:28:00,71.5,62.4,30.04,SE,129,3.0,5.0,73,0.00,,SKC,0.00,VWS V14.01,2013-08-19 05:28:00,
2013-08-19 00:30:00,71.3,62.6,30.03,SE,135,3.0,5.0,74,0.00,,---,0.00,VWS V14.01,2013-08-19 05:30:00,
2013-08-19 00:31:00,71.3,62.6,30.03,SE,127,5.0,6.0,74,0.00,,SKC,0.00,VWS V14.01,2013-08-19 05:31:00,
2013-08-19 00:32:00,71.3,62.6,30.03,SE,127,5.0,6.0,74,0.00,,SKC,0.00,VWS V14.01,2013-08-19 05:32:00,
2013-08-19 00:33:00,71.3,62.6,30.03,SE,127,3.0,6.0,74,0.00,,SKC,0.00,VWS V14.01,2013-08-19 05:33:00,
2013-08-19 00:37:00,71.1,62.4,30.03,ESE,122,4.0,6.0,74,0.00,,SKC,0.00,VWS V14.01,2013-08-19 05:37:00,
2013-08-19 00:38:00,70.9,62.2,30.03,ESE,122,4.0,6.0,74,0.00,,SKC,0.00,VWS V14.01,2013-08-19 05:38:00,
2013-08-19 00:40:00,70.9,62.6,30.03,ESE,112,4.0,6.0,75,0.00,,---,0.00,VWS V14.01,2013-08-19 05:40:00,
2013-08-19 00:42:00,70.8,62.5,30.03,ESE,122,3.0,6.0,75,0.00,,SKC,0.00,VWS V14.01,2013-08-19 05:42:00,
2013-08-19 00:43:00,70.8,62.5,30.03,ESE,122,5.0,6.0,75,0.00,,SKC,0.00,VWS V14.01,2013-08-19 05:43:00,
2013-08-19 00:47:00,70.6,62.3,30.03,ESE,122,3.0,6.0,75,0.00,,SKC,0.00,VWS V14.01,2013-08-19 05:47:00,
2013-08-19 00:48:00,70.4,62.5,30.03,ESE,122,4.0,6.0,76,0.00,,SKC,0.00,VWS V14.01,2013-08-19 05:48:00,
2013-08-19 00:50:00,70.4,62.5,30.03,ESE,112,4.0,6.0,76,0.00,,---,0.00,VWS V14.01,2013-08-19 05:50:00,
2013-08-19 00:52:00,70.3,62.4,30.03,SE,124,4.0,4.0,76,0.00,,SKC,0.00,VWS V14.01,2013-08-19 05:52:00,
2013-08-19 00:53:00,70.3,62.4,30.03,SE,124,5.0,6.0,76,0.00,,SKC,0.00,VWS V14.01,2013-08-19 05:53:00,
2013-08-19 00:57:00,70.1,62.6,30.03,ESE,123,5.0,6.0,77,0.00,,SKC,0.00,VWS V14.01,2013-08-19 05:57:00,
2013-08-19 00:58:00,69.9,62.4,30.03,ESE,123,4.0,6.0,77,0.00,,SKC,0.00,VWS V14.01,2013-08-19 05:58:00,
2013-08-19 01:00:00,69.8,62.3,30.03,ESE,112,4.0,7.0,77,0.00,,---,0.00,VWS V14.01,2013-08-19 06:00:00,
2013-08-19 01:02:00,69.8,62.3,30.03,ESE,123,4.0,5.0,77,0.00,,SKC,0.00,VWS V14.01,2013-08-19 06:02:00,
2013-08-19 01:03:00,69.8,62.3,30.03,ESE,123,5.0,6.0,77,0.00,,SKC,0.00,VWS V14.01,2013-08-19 06:03:00,
2013-08-19 01:07:00,69.6,62.4,30.03,ESE,123,5.0,6.0,78,0.00,,SKC,0.00,VWS V14.01,2013-08-19 06:07:00,
2013-08-19 01:08:00,69.6,62.4,30.03,ESE,123,5.0,6.0,78,0.00,,SKC,0.00,VWS V14.01,2013-08-19 06:08:00,
2013-08-19 01:10:00,69.4,62.2,30.03,ESE,112,4.0,6.0,78,0.00,,---,0.00,VWS V14.01,2013-08-19 06:10:00,
2013-08-19 01:12:00,69.4,62.2,30.03,SE,124,5.0,6.0,78,0.00,,SKC,0.00,VWS V14.01,2013-08-19 06:12:00,
2013-08-19 01:13:00,69.4,62.2,30.03,SE,124,4.0,6.0,78,0.00,,SKC,0.00,VWS V14.01,2013-08-19 06:13:00,
2013-08-19 01:17:00,69.4,62.2,30.02,SE,126,5.0,6.0,78,0.00,,SKC,0.00,VWS V14.01,2013-08-19 06:17:00,
2013-08-19 01:18:00,69.4,62.2,30.02,SE,126,5.0,6.0,78,0.00,,SKC,0.00,VWS V14.01,2013-08-19 06:18:00,
2013-08-19 01:20:00,69.4,62.2,30.02,SE,135,5.0,7.0,78,0.00,,---,0.00,VWS V14.01,2013-08-19 06:20:00,
2013-08-19 01:22:00,69.4,62.2,30.02,SE,128,5.0,6.0,78,0.00,,SKC,0.00,VWS V14.01,2013-08-19 06:22:00,
2013-08-19 01:23:00,69.4,62.2,30.02,SE,128,6.0,7.0,78,0.00,,SKC,0.00,VWS V14.01,2013-08-19 06:23:00,
2013-08-19 01:24:00,69.4,62.2,30.02,SE,128,6.0,7.0,78,0.00,,SKC,0.00,VWS V14.01,2013-08-19 06:24:00,
2013-08-19 01:27:00,69.3,62.2,30.02,SE,130,7.0,7.0,78,0.00,,SKC,0.00,VWS V14.01,2013-08-19 06:27:00,
2013-08-19 01:28:00,69.3,62.2,30.02,SE,130,4.0,7.0,78,0.00,,SKC,0.00,VWS V14.01,2013-08-19 06:28:00,
2013-08-19 01:29:00,69.3,62.2,30.02,SE,130,6.0,7.0,78,0.00,,SKC,0.00,VWS V14.01,2013-08-19 06:29:00,
2013-08-19 01:30:00,69.3,62.5,30.02,SE,135,5.0,7.0,79,0.00,,---,0.00,VWS V14.01,2013-08-19 06:30:00,
2013-08-19 01:32:00,69.1,62.3,30.02,SE,131,4.0,6.0,79,0.00,,SKC,0.00,VWS V14.01,2013-08-19 06:32:00,
2013-08-19 01:33:00,69.1,62.3,30.02,SE,131,6.0,6.0,79,0.00,,SKC,0.00,VWS V14.01,2013-08-19 06:33:00,
2013-08-19 01:34:00,69.1,62.3,30.02,SE,131,4.0,6.0,79,0.00,,SKC,0.00,VWS V14.01,2013-08-19 06:34:00,
2013-08-19 01:37:00,69.1,62.3,30.02,SE,133,5.0,7.0,79,0.00,,SKC,0.00,VWS V14.01,2013-08-19 06:37:00,
2013-08-19 01:38:00,69.1,62.3,30.02,SE,133,6.0,7.0,79,0.00,,SKC,0.00,VWS V14.01,2013-08-19 06:38:00,
2013-08-19 01:39:00,69.1,62.3,30.02,SE,134,6.0,7.0,79,0.00,,SKC,0.00,VWS V14.01,2013-08-19 06:39:00,
2013-08-19 01:40:00,69.1,62.3,30.02,SE,135,5.0,9.0,79,0.00,,---,0.00,VWS V14.01,2013-08-19 06:40:00,
2013-08-19 01:42:00,69.1,62.3,30.02,SE,134,5.0,10.0,79,0.00,,SKC,0.00,VWS V14.01,2013-08-19 06:42:00,
2013-08-19 01:43:00,69.1,62.3,30.02,SE,134,4.0,10.0,79,0.00,,SKC,0.00,VWS V14.01,2013-08-19 06:43:00,
2013-08-19 01:44:00,68.9,62.1,30.02,SE,134,5.0,10.0,79,0.00,,SKC,0.00,VWS V14.01,2013-08-19 06:44:00,
2013-08-19 01:47:00,68.9,62.1,30.01,SE,134,3.0,10.0,79,0.00,,SKC,0.00,VWS V14.01,2013-08-19 06:47:00,
2013-08-19 01:48:00,68.9,62.1,30.01,SE,134,5.0,10.0,79,0.00,,SKC,0.00,VWS V14.01,2013-08-19 06:48:00,
2013-08-19 01:49:00,68.9,62.1,30.01,SE,134,5.0,10.0,79,0.00,,SKC,0.00,VWS V14.01,2013-08-19 06:49:00,
2013-08-19 01:50:00,68.8,62.0,30.01,SE,135,5.0,10.0,79,0.00,,---,0.00,VWS V14.01,2013-08-19 06:50:00,
2013-08-19 01:52:00,68.8,62.0,30.01,SE,136,9.0,9.0,79,0.00,,SKC,0.00,VWS V14.01,2013-08-19 06:52:00,
2013-08-19 01:53:00,68.8,62.0,30.01,SE,136,4.0,9.0,79,0.00,,SKC,0.00,VWS V14.01,2013-08-19 06:53:00,
2013-08-19 01:54:00,68.9,62.1,30.01,SE,138,3.0,9.0,79,0.00,,SKC,0.00,VWS V14.01,2013-08-19 06:54:00,
2013-08-19 01:57:00,68.9,62.1,30.01,SE,142,5.0,9.0,79,0.00,,SKC,0.00,VWS V14.01,2013-08-19 06:57:00,
2013-08-19 01:58:00,68.9,62.1,30.01,SE,141,6.0,9.0,79,0.00,,SKC,0.00,VWS V14.01,2013-08-19 06:58:00,
2013-08-19 01:59:00,68.9,62.1,30.01,SE,142,7.0,9.0,79,0.00,,SKC,0.00,VWS V14.01,2013-08-19 06:59:00,
2013-08-19 02:00:00,68.9,62.1,30.01,SE,135,5.0,10.0,79,0.00,,---,0.00,VWS V14.01,2013-08-19 07:00:00,
2013-08-19 02:02:00,68.9,62.1,30.01,SSE,148,6.0,9.0,79,0.00,,SKC,0.00,VWS V14.01,2013-08-19 07:02:00,
2013-08-19 02:03:00,68.9,61.8,30.01,SE,144,8.0,9.0,78,0.00,,SKC,0.00,VWS V14.01,2013-08-19 07:03:00,
2013-08-19 02:04:00,68.9,61.8,30.01,SE,144,5.0,9.0,78,0.00,,SKC,0.00,VWS V14.01,2013-08-19 07:04:00,
2013-08-19 02:07:00,68.9,61.8,30.01,SE,146,6.0,9.0,78,0.00,,SKC,0.00,VWS V14.01,2013-08-19 07:07:00,
2013-08-19 02:08:00,68.9,61.8,30.01,SE,146,5.0,9.0,78,0.00,,SKC,0.00,VWS V14.01,2013-08-19 07:08:00,
2013-08-19 02:09:00,68.9,62.1,30.01,SSE,157,6.0,9.0,79,0.00,,SKC,0.00,VWS V14.01,2013-08-19 07:09:00,
2013-08-19 02:10:00,68.8,62.0,30.01,SE,135,5.0,9.0,79,0.00,,---,0.00,VWS V14.01,2013-08-19 07:10:00,
2013-08-19 02:12:00,68.8,62.0,30.01,SE,142,6.0,7.0,79,0.00,,SKC,0.00,VWS V14.01,2013-08-19 07:12:00,
2013-08-19 02:13:00,68.8,62.0,30.01,SE,142,4.0,7.0,79,0.00,,SKC,0.00,VWS V14.01,2013-08-19 07:13:00,
2013-08-19 02:14:00,68.8,62.0,30.01,SE,142,3.0,7.0,79,0.00,,SKC,0.00,VWS V14.01,2013-08-19 07:14:00,
2013-08-19 02:17:00,68.6,61.8,30.00,SSE,148,3.0,10.0,79,0.00,,SKC,0.00,VWS V14.01,2013-08-19 07:17:00,
2013-08-19 02:18:00,68.6,61.8,30.00,SE,145,3.0,10.0,79,0.00,,SKC,0.00,VWS V14.01,2013-08-19 07:18:00,
2013-08-19 02:19:00,68.6,61.8,30.00,SE,139,7.0,10.0,79,0.00,,SKC,0.00,VWS V14.01,2013-08-19 07:19:00,
2013-08-19 02:20:00,68.6,61.8,30.00,SE,135,5.0,10.0,79,0.00,,---,0.00,VWS V14.01,2013-08-19 07:20:00,
2013-08-19 02:23:00,68.4,61.6,30.00,SE,138,3.0,6.0,79,0.00,,SKC,0.00,VWS V14.01,2013-08-19 07:23:00,
2013-08-19 02:24:00,68.4,61.6,30.00,SE,139,6.0,6.0,79,0.00,,SKC,0.00,VWS V14.01,2013-08-19 07:24:00,
2013-08-19 02:28:00,68.3,61.9,30.00,SE,144,6.0,10.0,80,0.00,,SKC,0.00,VWS V14.01,2013-08-19 07:28:00,
2013-08-19 02:29:00,68.3,61.9,30.00,SE,142,6.0,10.0,80,0.00,,SKC,0.00,VWS V14.01,2013-08-19 07:29:00,
2013-08-19 02:30:00,68.3,61.9,30.01,SE,135,5.0,10.0,80,0.00,,---,0.00,VWS V14.01,2013-08-19 07:30:00,
2013-08-19 02:33:00,68.3,61.9,30.01,SE,142,5.0,7.0,80,0.00,,SKC,0.00,VWS V14.01,2013-08-19 07:33:00,
2013-08-19 02:34:00,68.1,61.7,30.01,SE,142,3.0,7.0,80,0.00,,SKC,0.00,VWS V14.01,2013-08-19 07:34:00,
2013-08-19 02:35:00,68.1,61.7,30.01,SE,142,4.0,7.0,80,0.00,,SKC,0.00,VWS V14.01,2013-08-19 07:35:00,
2013-08-19 02:38:00,68.1,62.1,30.01,SE,142,1.0,7.0,81,0.00,,SKC,0.00,VWS V14.01,2013-08-19 07:38:00,
2013-08-19 02:39:00,68.1,62.1,30.01,SE,142,0.0,7.0,81,0.00,,SKC,0.00,VWS V14.01,2013-08-19 07:39:00,
2013-08-19 02:40:00,68.1,62.1,30.01,SE,142,0.0,7.0,81,0.00,,SKC,0.00,VWS V14.01,2013-08-19 07:40:00,
2013-08-19 02:43:00,67.9,61.9,30.01,SE,142,0.0,0.0,81,0.00,,SKC,0.00,VWS V14.01,2013-08-19 07:43:00,
2013-08-19 02:44:00,67.9,61.9,30.01,SE,142,0.0,0.0,81,0.00,,SKC,0.00,VWS V14.01,2013-08-19 07:44:00,
2013-08-19 02:45:00,67.9,61.9,30.01,SE,142,0.0,0.0,81,0.00,,SKC,0.00,VWS V14.01,2013-08-19 07:45:00,
2013-08-19 02:48:00,67.8,62.1,30.01,SE,142,0.0,0.0,82,0.00,,SKC,0.00,VWS V14.01,2013-08-19 07:48:00,
2013-08-19 02:49:00,67.6,61.9,30.01,SE,142,0.0,0.0,82,0.00,,SKC,0.00,VWS V14.01,2013-08-19 07:49:00,
2013-08-19 02:50:00,67.6,61.9,30.01,SE,142,0.0,0.0,82,0.00,,SKC,0.00,VWS V14.01,2013-08-19 07:50:00,
2013-08-19 02:53:00,67.4,61.7,30.01,SE,142,0.0,0.0,82,0.00,,SKC,0.00,VWS V14.01,2013-08-19 07:53:00,
2013-08-19 02:54:00,67.4,61.7,30.01,SE,142,0.0,0.0,82,0.00,,SKC,0.00,VWS V14.01,2013-08-19 07:54:00,
2013-08-19 02:55:00,67.4,61.7,30.01,SE,142,0.0,0.0,82,0.00,,SKC,0.00,VWS V14.01,2013-08-19 07:55:00,
2013-08-19 02:58:00,67.3,62.0,30.01,SE,142,0.0,0.0,83,0.00,,SKC,0.00,VWS V14.01,2013-08-19 07:58:00,
2013-08-19 02:59:00,67.3,62.0,30.01,SE,142,0.0,0.0,83,0.00,,SKC,0.00,VWS V14.01,2013-08-19 07:59:00,
2013-08-19 03:00:00,67.3,62.0,30.01,SE,142,0.0,0.0,83,0.00,,SKC,0.00,VWS V14.01,2013-08-19 08:00:00,
2013-08-19 03:03:00,67.3,62.0,30.00,SE,142,0.0,0.0,83,0.00,,SKC,0.00,VWS V14.01,2013-08-19 08:03:00,
2013-08-19 03:04:00,67.3,62.0,30.00,SE,142,0.0,0.0,83,0.00,,SKC,0.00,VWS V14.01,2013-08-19 08:04:00,
2013-08-19 03:05:00,67.3,62.0,30.00,SE,142,0.0,0.0,83,0.00,,SKC,0.00,VWS V14.01,2013-08-19 08:05:00,
2013-08-19 03:08:00,67.3,62.0,30.00,SE,142,0.0,0.0,83,0.00,,SKC,0.00,VWS V14.01,2013-08-19 08:08:00,
2013-08-19 03:09:00,67.3,62.0,30.00,SE,142,0.0,0.0,83,0.00,,SKC,0.00,VWS V14.01,2013-08-19 08:09:00,
2013-08-19 03:10:00,67.3,62.0,30.00,SE,142,0.0,0.0,83,0.00,,SKC,0.00,VWS V14.01,2013-08-19 08:10:00,
2013-08-19 03:13:00,67.3,62.0,30.00,SE,142,0.0,0.0,83,0.00,,SKC,0.00,VWS V14.01,2013-08-19 08:13:00,
2013-08-19 03:14:00,67.3,62.0,30.00,SE,142,0.0,0.0,83,0.00,,SKC,0.00,VWS V14.01,2013-08-19 08:14:00,
2013-08-19 03:15:00,67.3,62.0,30.00,SE,142,0.0,0.0,83,0.00,,SKC,0.00,VWS V14.01,2013-08-19 08:15:00,
2013-08-19 03:18:00,67.3,62.0,30.00,SE,142,0.0,0.0,83,0.00,,SKC,0.00,VWS V14.01,2013-08-19 08:18:00,
2013-08-19 03:19:00,67.3,62.0,30.00,SE,142,0.0,0.0,83,0.00,,SKC,0.00,VWS V14.01,2013-08-19 08:19:00,
2013-08-19 03:20:00,67.3,62.0,30.00,SE,142,0.0,0.0,83,0.00,,SKC,0.00,VWS V14.01,2013-08-19 08:20:00,
2013-08-19 03:23:00,67.3,62.0,30.00,SE,143,0.0,0.0,83,0.00,,SKC,0.00,VWS V14.01,2013-08-19 08:23:00,
2013-08-19 03:24:00,67.3,62.0,30.00,SE,142,0.0,0.0,83,0.00,,SKC,0.00,VWS V14.01,2013-08-19 08:24:00,
2013-08-19 03:25:00,67.3,62.0,30.00,SE,142,0.0,0.0,83,0.00,,SKC,0.00,VWS V14.01,2013-08-19 08:25:00,
2013-08-19 03:28:00,67.3,62.3,30.00,SE,142,0.0,0.0,84,0.00,,SKC,0.00,VWS V14.01,2013-08-19 08:28:00,
2013-08-19 03:29:00,67.3,62.3,30.00,SE,142,0.0,0.0,84,0.00,,SKC,0.00,VWS V14.01,2013-08-19 08:29:00,
2013-08-19 03:30:00,67.3,62.3,30.00,SE,143,0.0,0.0,84,0.00,,SKC,0.00,VWS V14.01,2013-08-19 08:30:00,
2013-08-19 03:33:00,67.3,62.3,30.00,SE,143,0.0,0.0,84,0.00,,SKC,0.00,VWS V14.01,2013-08-19 08:33:00,
2013-08-19 03:34:00,67.3,62.3,30.00,SE,143,0.0,0.0,84,0.00,,SKC,0.00,VWS V14.01,2013-08-19 08:34:00,
2013-08-19 03:35:00,67.3,62.3,30.00,SE,143,0.0,0.0,84,0.00,,SKC,0.00,VWS V14.01,2013-08-19 08:35:00,
2013-08-19 03:38:00,67.3,62.3,30.00,SE,143,0.0,0.0,84,0.00,,SKC,0.00,VWS V14.01,2013-08-19 08:38:00,
2013-08-19 03:39:00,67.3,62.3,30.00,SE,143,0.0,0.0,84,0.00,,SKC,0.00,VWS V14.01,2013-08-19 08:39:00,
2013-08-19 03:40:00,67.3,62.3,30.00,SE,143,0.0,0.0,84,0.00,,SKC,0.00,VWS V14.01,2013-08-19 08:40:00,
2013-08-19 03:43:00,67.4,62.4,30.00,SE,143,0.0,0.0,84,0.00,,SKC,0.00,VWS V14.01,2013-08-19 08:43:00,
2013-08-19 03:44:00,67.4,62.4,30.00,SE,143,0.0,0.0,84,0.00,,SKC,0.00,VWS V14.01,2013-08-19 08:44:00,
2013-08-19 03:45:00,67.4,62.4,30.00,SE,143,0.0,0.0,84,0.00,,SKC,0.00,VWS V14.01,2013-08-19 08:45:00,
2013-08-19 03:48:00,67.3,62.3,30.00,SE,143,0.0,0.0,84,0.00,,SKC,0.00,VWS V14.01,2013-08-19 08:48:00,
2013-08-19 03:49:00,67.3,62.3,30.00,SE,143,0.0,0.0,84,0.00,,SKC,0.00,VWS V14.01,2013-08-19 08:49:00,
2013-08-19 03:50:00,67.3,62.3,30.00,SE,143,0.0,0.0,84,0.00,,SKC,0.00,VWS V14.01,2013-08-19 08:50:00,
2013-08-19 03:54:00,67.3,62.3,30.00,SE,143,0.0,0.0,84,0.00,,SKC,0.00,VWS V14.01,2013-08-19 08:54:00,
2013-08-19 03:55:00,67.3,62.3,30.00,SE,143,0.0,0.0,84,0.00,,SKC,0.00,VWS V14.01,2013-08-19 08:55:00,
2013-08-19 03:56:00,67.3,62.3,30.00,SE,143,0.0,0.0,84,0.00,,SKC,0.00,VWS V14.01,2013-08-19 08:56:00,
2013-08-19 03:59:00,67.3,62.3,30.00,SE,143,0.0,0.0,84,0.00,,SKC,0.00,VWS V14.01,2013-08-19 08:59:00,
2013-08-19 04:00:00,67.3,62.3,30.00,SE,143,0.0,0.0,84,0.00,,SKC,0.00,VWS V14.01,2013-08-19 09:00:00,
2013-08-19 04:01:00,67.3,62.3,29.99,SE,143,0.0,0.0,84,0.00,,SKC,0.00,VWS V14.01,2013-08-19 09:01:00,
2013-08-19 04:04:00,67.4,62.4,29.99,SE,144,0.0,0.0,84,0.00,,SKC,0.00,VWS V14.01,2013-08-19 09:04:00,
2013-08-19 04:05:00,67.4,62.4,29.99,SE,144,0.0,0.0,84,0.00,,SKC,0.00,VWS V14.01,2013-08-19 09:05:00,
2013-08-19 04:06:00,67.4,62.4,29.99,SE,144,0.0,0.0,84,0.00,,SKC,0.00,VWS V14.01,2013-08-19 09:06:00,
2013-08-19 04:09:00,67.4,62.4,29.99,SE,144,0.0,0.0,84,0.00,,SKC,0.00,VWS V14.01,2013-08-19 09:09:00,
2013-08-19 04:10:00,67.4,62.4,29.99,SE,144,0.0,0.0,84,0.00,,SKC,0.00,VWS V14.01,2013-08-19 09:10:00,
2013-08-19 04:11:00,67.4,62.4,29.99,SE,144,0.0,0.0,84,0.00,,SKC,0.00,VWS V14.01,2013-08-19 09:11:00,
2013-08-19 04:14:00,67.4,62.4,29.99,SE,144,0.0,0.0,84,0.00,,SKC,0.00,VWS V14.01,2013-08-19 09:14:00,
2013-08-19 04:15:00,67.4,62.4,29.99,SE,144,0.0,0.0,84,0.00,,SKC,0.00,VWS V14.01,2013-08-19 09:15:00,
2013-08-19 04:16:00,67.4,62.4,29.99,SE,144,0.0,0.0,84,0.00,,SKC,0.00,VWS V14.01,2013-08-19 09:16:00,
2013-08-19 04:19:00,67.4,62.4,29.99,SE,144,0.0,0.0,84,0.00,,SKC,0.00,VWS V14.01,2013-08-19 09:19:00,
2013-08-19 04:20:00,67.4,62.4,29.99,SE,144,0.0,0.0,84,0.00,,SKC,0.00,VWS V14.01,2013-08-19 09:20:00,
2013-08-19 04:21:00,67.4,62.4,29.99,SE,144,0.0,0.0,84,0.00,,SKC,0.00,VWS V14.01,2013-08-19 09:21:00,
2013-08-19 04:24:00,67.4,62.4,29.99,SE,144,0.0,0.0,84,0.00,,SKC,0.00,VWS V14.01,2013-08-19 09:24:00,
2013-08-19 04:25:00,67.4,62.4,29.99,SE,144,0.0,0.0,84,0.00,,SKC,0.00,VWS V14.01,2013-08-19 09:25:00,
2013-08-19 04:26:00,67.4,62.4,29.99,SE,144,0.0,0.0,84,0.00,,SKC,0.00,VWS V14.01,2013-08-19 09:26:00,
2013-08-19 04:29:00,67.4,62.4,29.99,SE,144,0.0,0.0,84,0.00,,SKC,0.00,VWS V14.01,2013-08-19 09:29:00,
2013-08-19 04:30:00,67.4,62.4,29.99,SE,144,0.0,0.0,84,0.00,,SKC,0.00,VWS V14.01,2013-08-19 09:30:00,
2013-08-19 04:31:00,67.4,62.4,29.99,SE,144,0.0,0.0,84,0.00,,SKC,0.00,VWS V14.01,2013-08-19 09:31:00,
2013-08-19 04:34:00,67.4,62.4,29.99,SE,144,0.0,0.0,84,0.00,,SKC,0.00,VWS V14.01,2013-08-19 09:34:00,
2013-08-19 04:35:00,67.3,62.6,29.99,SE,144,0.0,0.0,85,0.00,,SKC,0.00,VWS V14.01,2013-08-19 09:35:00,
2013-08-19 04:36:00,67.3,62.6,29.99,SE,144,0.0,0.0,85,0.00,,SKC,0.00,VWS V14.01,2013-08-19 09:36:00,
2013-08-19 04:39:00,67.3,62.6,29.99,SE,144,0.0,0.0,85,0.00,,SKC,0.00,VWS V14.01,2013-08-19 09:39:00,
2013-08-19 04:40:00,67.3,62.6,29.99,SE,144,0.0,0.0,85,0.00,,SKC,0.00,VWS V14.01,2013-08-19 09:40:00,
2013-08-19 04:41:00,67.3,62.6,29.99,SE,144,0.0,0.0,85,0.00,,SKC,0.00,VWS V14.01,2013-08-19 09:41:00,
2013-08-19 04:44:00,67.3,62.6,29.99,SE,144,0.0,0.0,85,0.00,,SKC,0.00,VWS V14.01,2013-08-19 09:44:00,
2013-08-19 04:45:00,67.3,62.6,29.99,SE,144,0.0,0.0,85,0.00,,SKC,0.00,VWS V14.01,2013-08-19 09:45:00,
2013-08-19 04:46:00,67.3,62.6,29.99,SE,144,0.0,0.0,85,0.00,,SKC,0.00,VWS V14.01,2013-08-19 09:46:00,
2013-08-19 04:49:00,67.3,62.6,29.99,SE,144,0.0,0.0,85,0.00,,SKC,0.00,VWS V14.01,2013-08-19 09:49:00,
2013-08-19 04:50:00,67.3,62.6,29.99,SE,144,0.0,0.0,85,0.00,,SKC,0.00,VWS V14.01,2013-08-19 09:50:00,
2013-08-19 04:51:00,67.3,62.6,29.99,SE,144,0.0,0.0,85,0.00,,SKC,0.00,VWS V14.01,2013-08-19 09:51:00,
2013-08-19 04:54:00,67.3,62.6,29.99,SE,144,0.0,0.0,85,0.00,,SKC,0.00,VWS V14.01,2013-08-19 09:54:00,
2013-08-19 04:55:00,67.3,62.6,29.99,SE,144,0.0,0.0,85,0.00,,SKC,0.00,VWS V14.01,2013-08-19 09:55:00,
2013-08-19 04:56:00,67.3,62.6,29.99,SE,144,0.0,0.0,85,0.00,,SKC,0.00,VWS V14.01,2013-08-19 09:56:00,
2013-08-19 04:59:00,67.3,62.6,29.99,SE,144,0.0,0.0,85,0.00,,SKC,0.00,VWS V14.01,2013-08-19 09:59:00,
2013-08-19 05:00:00,67.3,62.6,29.99,SE,144,0.0,0.0,85,0.00,,SKC,0.00,VWS V14.01,2013-08-19 10:00:00,
2013-08-19 05:01:00,67.3,62.6,29.99,SE,144,0.0,0.0,85,0.00,,SKC,0.00,VWS V14.01,2013-08-19 10:01:00,
2013-08-19 05:04:00,67.3,62.6,29.99,SE,144,0.0,0.0,85,0.00,,SKC,0.00,VWS V14.01,2013-08-19 10:04:00,
2013-08-19 05:05:00,67.3,62.6,29.99,SE,144,0.0,0.0,85,0.00,,SKC,0.00,VWS V14.01,2013-08-19 10:05:00,
2013-08-19 05:06:00,67.3,63.0,29.99,SE,144,0.0,0.0,86,0.00,,SKC,0.00,VWS V14.01,2013-08-19 10:06:00,
2013-08-19 05:09:00,67.3,63.0,29.99,SE,144,0.0,0.0,86,0.00,,SKC,0.00,VWS V14.01,2013-08-19 10:09:00,
2013-08-19 05:10:00,67.3,63.0,29.99,SE,144,0.0,0.0,86,0.00,,SKC,0.00,VWS V14.01,2013-08-19 10:10:00,
2013-08-19 05:11:00,67.3,63.0,29.99,SE,144,0.0,0.0,86,0.00,,SKC,0.00,VWS V14.01,2013-08-19 10:11:00,
2013-08-19 05:14:00,67.1,62.8,29.99,SE,144,0.0,0.0,86,0.00,,SKC,0.00,VWS V14.01,2013-08-19 10:14:00,
2013-08-19 05:15:00,67.1,62.8,29.99,SE,144,0.0,0.0,86,0.00,,SKC,0.00,VWS V14.01,2013-08-19 10:15:00,
2013-08-19 05:16:00,67.1,62.8,29.99,SE,144,0.0,0.0,86,0.00,,SKC,0.00,VWS V14.01,2013-08-19 10:16:00,
2013-08-19 05:17:00,67.1,62.8,29.99,SE,144,0.0,0.0,86,0.00,,SKC,0.00,VWS V14.01,2013-08-19 10:17:00,
2013-08-19 05:19:00,67.1,62.8,29.99,SE,144,0.0,0.0,86,0.00,,SKC,0.00,VWS V14.01,2013-08-19 10:19:00,
2013-08-19 05:20:00,67.1,62.8,29.99,SE,144,0.0,0.0,86,0.00,,SKC,0.00,VWS V14.01,2013-08-19 10:20:00,
2013-08-19 05:21:00,67.1,62.8,29.99,SE,144,0.0,0.0,86,0.00,,SKC,0.00,VWS V14.01,2013-08-19 10:21:00,
2013-08-19 05:22:00,67.1,62.8,29.99,SE,144,0.0,0.0,86,0.00,,SKC,0.00,VWS V14.01,2013-08-19 10:22:00,
2013-08-19 05:24:00,67.1,62.8,29.99,SE,144,0.0,0.0,86,0.00,,SKC,0.00,VWS V14.01,2013-08-19 10:24:00,
2013-08-19 05:25:00,67.1,62.8,29.99,SE,144,0.0,0.0,86,0.00,,SKC,0.00,VWS V14.01,2013-08-19 10:25:00,
2013-08-19 05:26:00,67.1,62.8,29.99,SE,144,0.0,0.0,86,0.00,,SKC,0.00,VWS V14.01,2013-08-19 10:26:00,
2013-08-19 05:27:00,67.1,62.8,29.99,SE,144,0.0,0.0,86,0.00,,SKC,0.00,VWS V14.01,2013-08-19 10:27:00,
2013-08-19 05:29:00,66.9,62.6,29.99,SE,144,0.0,0.0,86,0.00,,SKC,0.00,VWS V14.01,2013-08-19 10:29:00,
2013-08-19 05:30:00,66.9,62.6,29.99,SE,144,0.0,0.0,86,0.00,,SKC,0.00,VWS V14.01,2013-08-19 10:30:00,
2013-08-19 05:31:00,66.9,62.6,29.99,SE,144,0.0,0.0,86,0.00,,SKC,0.00,VWS V14.01,2013-08-19 10:31:00,
2013-08-19 05:32:00,66.9,62.6,29.99,SE,144,0.0,0.0,86,0.00,,SKC,0.00,VWS V14.01,2013-08-19 10:32:00,
2013-08-19 05:34:00,67.1,63.1,29.99,SE,144,0.0,0.0,87,0.00,,SKC,0.00,VWS V14.01,2013-08-19 10:34:00,
2013-08-19 05:35:00,67.1,63.1,29.99,SE,144,0.0,0.0,87,0.00,,SKC,0.00,VWS V14.01,2013-08-19 10:35:00,
2013-08-19 05:36:00,67.1,63.1,29.99,SE,144,0.0,0.0,87,0.00,,SKC,0.00,VWS V14.01,2013-08-19 10:36:00,
2013-08-19 05:37:00,67.1,62.8,29.99,SE,144,0.0,0.0,86,0.00,,SKC,0.00,VWS V14.01,2013-08-19 10:37:00,
2013-08-19 05:40:00,67.1,62.8,29.99,SE,144,0.0,0.0,86,0.00,,SKC,0.00,VWS V14.01,2013-08-19 10:40:00,
2013-08-19 05:41:00,67.1,62.8,29.99,SE,144,0.0,0.0,86,0.00,,SKC,0.00,VWS V14.01,2013-08-19 10:41:00,
2013-08-19 05:42:00,67.1,62.8,29.99,SE,144,0.0,0.0,86,0.00,,SKC,0.00,VWS V14.01,2013-08-19 10:42:00,
2013-08-19 05:45:00,66.9,62.6,29.99,SE,144,0.0,0.0,86,0.00,,SKC,0.00,VWS V14.01,2013-08-19 10:45:00,
2013-08-19 05:46:00,66.9,62.6,29.98,SE,144,0.0,0.0,86,0.00,,SKC,0.00,VWS V14.01,2013-08-19 10:46:00,
2013-08-19 05:47:00,66.9,62.9,29.98,SE,144,0.0,0.0,87,0.00,,SKC,0.00,VWS V14.01,2013-08-19 10:47:00,
2013-08-19 05:50:00,66.9,62.9,29.98,SE,144,3.0,6.0,87,0.00,,SKC,0.00,VWS V14.01,2013-08-19 10:50:00,
2013-08-19 05:51:00,66.9,62.9,29.98,SE,144,4.0,6.0,87,0.00,,SKC,0.00,VWS V14.01,2013-08-19 10:51:00,
2013-08-19 05:52:00,66.9,62.9,29.98,SE,144,4.0,5.0,87,0.00,,SKC,0.00,VWS V14.01,2013-08-19 10:52:00,
2013-08-19 05:55:00,66.9,62.9,29.98,SE,144,4.0,5.0,87,0.00,,SKC,0.00,VWS V14.01,2013-08-19 10:55:00,
2013-08-19 05:56:00,66.9,62.9,29.98,SE,144,4.0,5.0,87,0.00,,SKC,0.00,VWS V14.01,2013-08-19 10:56:00,
2013-08-19 05:57:00,66.9,62.9,29.98,SE,144,5.0,6.0,87,0.00,,SKC,0.00,VWS V14.01,2013-08-19 10:57:00,
2013-08-19 06:00:00,66.9,62.9,29.98,SE,143,4.0,6.0,87,0.00,,SKC,0.00,VWS V14.01,2013-08-19 11:00:00,
2013-08-19 06:01:00,66.8,62.8,29.98,SE,143,4.0,4.0,87,0.00,,SKC,0.00,VWS V14.01,2013-08-19 11:01:00,
2013-08-19 06:02:00,66.8,62.8,29.98,SE,143,4.0,5.0,87,0.00,,SKC,0.00,VWS V14.01,2013-08-19 11:02:00,
2013-08-19 06:05:00,66.8,62.8,29.98,SE,143,4.0,5.0,87,0.00,,SKC,0.00,VWS V14.01,2013-08-19 11:05:00,
2013-08-19 06:06:00,66.8,62.8,29.98,SE,143,4.0,5.0,87,0.00,,SKC,0.00,VWS V14.01,2013-08-19 11:06:00,
2013-08-19 06:07:00,66.8,62.8,29.98,SE,143,3.0,5.0,87,0.00,,SKC,0.00,VWS V14.01,2013-08-19 11:07:00,
2013-08-19 06:10:00,66.6,62.6,29.98,SE,143,0.0,5.0,87,0.00,,SKC,0.00,VWS V14.01,2013-08-19 11:10:00,
2013-08-19 06:11:00,66.6,62.6,29.98,SE,143,0.0,0.0,87,0.00,,SKC,0.00,VWS V14.01,2013-08-19 11:11:00,
2013-08-19 06:12:00,66.6,62.6,29.98,SE,143,0.0,0.0,87,0.00,,SKC,0.00,VWS V14.01,2013-08-19 11:12:00,
2013-08-19 06:15:00,66.4,62.4,29.98,SE,142,0.0,0.0,87,0.00,,SKC,0.00,VWS V14.01,2013-08-19 11:15:00,
2013-08-19 06:16:00,66.4,62.7,29.99,SE,142,0.0,0.0,88,0.00,,SKC,0.00,VWS V14.01,2013-08-19 11:16:00,
2013-08-19 06:17:00,66.4,62.7,29.99,SE,142,0.0,0.0,88,0.00,,SKC,0.00,VWS V14.01,2013-08-19 11:17:00,
2013-08-19 06:20:00,66.4,62.7,29.99,SE,142,0.0,0.0,88,0.00,,SKC,0.00,VWS V14.01,2013-08-19 11:20:00,
2013-08-19 06:21:00,66.4,62.7,29.99,SE,142,0.0,0.0,88,0.00,,SKC,0.00,VWS V14.01,2013-08-19 11:21:00,
2013-08-19 06:22:00,66.4,62.7,29.99,SE,142,0.0,0.0,88,0.00,,SKC,0.00,VWS V14.01,2013-08-19 11:22:00,
2013-08-19 06:25:00,66.4,62.7,29.99,SE,141,3.0,4.0,88,0.00,,SKC,0.00,VWS V14.01,2013-08-19 11:25:00,
2013-08-19 06:27:00,66.4,62.7,29.99,SE,141,4.0,5.0,88,0.00,,SKC,0.00,VWS V14.01,2013-08-19 11:27:00,
2013-08-19 06:28:00,66.4,62.7,29.99,SE,141,0.0,5.0,88,0.00,,SKC,0.00,VWS V14.01,2013-08-19 11:28:00,
2013-08-19 06:30:00,66.3,62.6,29.99,SE,141,0.0,5.0,88,0.00,,SKC,0.00,VWS V14.01,2013-08-19 11:30:00,
2013-08-19 06:32:00,66.3,63.0,30.00,SE,141,0.0,0.0,89,0.00,,SKC,0.00,VWS V14.01,2013-08-19 11:32:00,
2013-08-19 06:33:00,66.3,63.0,30.00,SE,141,0.0,0.0,89,0.00,,SKC,0.00,VWS V14.01,2013-08-19 11:33:00,
2013-08-19 06:35:00,66.3,63.0,30.00,SE,141,0.0,0.0,89,0.00,,SKC,0.00,VWS V14.01,2013-08-19 11:35:00,
2013-08-19 06:36:00,66.3,63.0,30.00,SE,141,0.0,0.0,89,0.00,,SKC,0.00,VWS V14.01,2013-08-19 11:36:00,
2013-08-19 06:37:00,66.3,63.0,30.00,SE,141,0.0,0.0,89,0.00,,SKC,0.00,VWS V14.01,2013-08-19 11:37:00,
2013-08-19 06:38:00,66.3,63.0,30.00,SE,141,0.0,0.0,89,0.00,,SKC,0.00,VWS V14.01,2013-08-19 11:38:00,
2013-08-19 06:40:00,66.3,63.0,30.00,SE,127,5.0,6.0,89,0.00,,SKC,0.00,VWS V14.01,2013-08-19 11:40:00,
2013-08-19 06:41:00,66.3,63.0,30.00,SE,127,3.0,6.0,89,0.00,,SKC,0.00,VWS V14.01,2013-08-19 11:41:00,
2013-08-19 06:42:00,66.3,63.0,30.00,SE,128,3.0,5.0,89,0.00,,SKC,0.00,VWS V14.01,2013-08-19 11:42:00,
2013-08-19 06:43:00,66.3,63.0,30.00,SE,128,5.0,6.0,89,0.00,,SKC,0.00,VWS V14.01,2013-08-19 11:43:00,
2013-08-19 06:45:00,66.3,63.0,30.00,SE,128,4.0,6.0,89,0.00,,SKC,0.00,VWS V14.01,2013-08-19 11:45:00,
2013-08-19 06:46:00,66.4,63.1,29.99,SE,128,5.0,6.0,89,0.00,,SKC,0.00,VWS V14.01,2013-08-19 11:46:00,
2013-08-19 06:47:00,66.4,63.1,29.99,SE,128,4.0,7.0,89,0.00,,SKC,0.00,VWS V14.01,2013-08-19 11:47:00,
2013-08-19 06:48:00,66.4,63.1,29.99,SE,131,4.0,7.0,89,0.00,,SKC,0.00,VWS V14.01,2013-08-19 11:48:00,
2013-08-19 06:50:00,66.4,63.1,29.99,SE,132,4.0,7.0,89,0.00,,SKC,0.00,VWS V14.01,2013-08-19 11:50:00,
2013-08-19 06:51:00,66.4,63.1,29.99,SE,134,3.0,7.0,89,0.00,,SKC,0.00,VWS V14.01,2013-08-19 11:51:00,
2013-08-19 06:52:00,66.4,63.1,29.99,SE,134,3.0,4.0,89,0.00,,SKC,0.00,VWS V14.01,2013-08-19 11:52:00,
2013-08-19 06:53:00,66.4,63.1,29.99,SE,134,3.0,6.0,89,0.00,,SKC,0.00,VWS V14.01,2013-08-19 11:53:00,
2013-08-19 06:55:00,66.4,63.1,29.99,SE,140,0.0,6.0,89,0.00,,SKC,0.00,VWS V14.01,2013-08-19 11:55:00,
2013-08-19 06:56:00,66.4,63.1,29.99,SE,142,3.0,7.0,89,0.00,,SKC,0.00,VWS V14.01,2013-08-19 11:56:00,
2013-08-19 06:57:00,66.6,62.9,29.99,SE,142,0.0,7.0,88,0.00,,SKC,0.00,VWS V14.01,2013-08-19 11:57:00,
2013-08-19 06:58:00,66.6,62.9,29.99,SE,142,0.0,7.0,88,0.00,,SKC,0.00,VWS V14.01,2013-08-19 11:58:00,
2013-08-19 07:00:00,66.6,62.9,29.99,SE,143,0.0,7.0,88,0.00,,SKC,0.00,VWS V14.01,2013-08-19 12:00:00,
2013-08-19 07:01:00,66.6,62.9,29.99,SE,144,0.0,7.0,88,0.00,,SKC,0.00,VWS V14.01,2013-08-19 12:01:00,
2013-08-19 07:02:00,66.6,62.9,29.99,SE,144,0.0,4.0,88,0.00,,SKC,0.00,VWS V14.01,2013-08-19 12:02:00,
2013-08-19 07:03:00,66.6,62.9,29.99,SE,144,0.0,4.0,88,0.00,,SKC,0.00,VWS V14.01,2013-08-19 12:03:00,
2013-08-19 07:06:00,66.6,62.9,29.99,SE,144,0.0,4.0,88,0.00,,SKC,0.00,VWS V14.01,2013-08-19 12:06:00,
2013-08-19 07:07:00,66.6,62.9,29.99,SE,144,0.0,4.0,88,0.00,,SKC,0.00,VWS V14.01,2013-08-19 12:07:00,
2013-08-19 07:08:00,66.6,62.9,29.99,SE,144,0.0,4.0,88,0.00,,SKC,0.00,VWS V14.01,2013-08-19 12:08:00,
2013-08-19 07:10:00,66.8,63.1,29.99,SE,135,1.0,6.0,88,0.00,,---,0.00,VWS V14.01,2013-08-19 12:10:00,
2013-08-19 07:11:00,66.8,63.1,29.99,SE,146,0.0,6.0,88,0.00,,SKC,0.00,VWS V14.01,2013-08-19 12:11:00,
2013-08-19 07:12:00,66.8,63.1,29.99,SE,146,0.0,0.0,88,0.00,,SKC,0.00,VWS V14.01,2013-08-19 12:12:00,
2013-08-19 07:13:00,66.8,63.1,29.99,SE,146,0.0,0.0,88,0.00,,SKC,0.00,VWS V14.01,2013-08-19 12:13:00,
2013-08-19 07:16:00,66.9,63.2,30.00,SSE,147,0.0,7.0,88,0.00,,SKC,0.00,VWS V14.01,2013-08-19 12:16:00,
2013-08-19 07:17:00,66.9,63.2,30.00,SSE,147,0.0,7.0,88,0.00,,SKC,0.00,VWS V14.01,2013-08-19 12:17:00,
2013-08-19 07:18:00,66.9,63.2,30.00,SSE,147,0.0,7.0,88,0.00,,SKC,0.00,VWS V14.01,2013-08-19 12:18:00,
2013-08-19 07:20:00,67.1,63.1,30.00,SSE,158,1.0,7.0,87,0.00,,---,0.00,VWS V14.01,2013-08-19 12:20:00,
2013-08-19 07:21:00,67.1,63.1,30.00,SSE,148,0.0,7.0,87,0.00,,SKC,0.00,VWS V14.01,2013-08-19 12:21:00,
2013-08-19 07:22:00,67.1,63.1,30.00,SSE,148,0.0,0.0,87,0.00,,SKC,0.00,VWS V14.01,2013-08-19 12:22:00,
2013-08-19 07:23:00,67.1,63.1,30.00,SSE,148,0.0,0.0,87,0.00,,SKC,0.00,VWS V14.01,2013-08-19 12:23:00,
2013-08-19 07:26:00,67.3,63.3,30.00,SSE,148,0.0,0.0,87,0.00,,SKC,0.00,VWS V14.01,2013-08-19 12:26:00,
2013-08-19 07:28:00,67.3,63.3,30.00,SSE,148,0.0,3.0,87,0.00,,SKC,0.00,VWS V14.01,2013-08-19 12:28:00,
2013-08-19 07:29:00,67.3,63.3,30.00,SSE,148,0.0,3.0,87,0.00,,SKC,0.00,VWS V14.01,2013-08-19 12:29:00,
2013-08-19 07:30:00,67.3,63.3,30.00,SSE,158,0.0,5.0,87,0.00,,---,0.00,VWS V14.01,2013-08-19 12:30:00,
2013-08-19 07:31:00,67.3,63.3,30.00,SSE,149,0.0,5.0,87,0.00,,SKC,0.00,VWS V14.01,2013-08-19 12:31:00,
2013-08-19 07:32:00,67.3,63.3,30.00,SSE,149,0.0,0.0,87,0.00,,SKC,0.00,VWS V14.01,2013-08-19 12:32:00,
2013-08-19 07:33:00,67.3,63.3,30.00,SSE,149,0.0,0.0,87,0.00,,SKC,0.00,VWS V14.01,2013-08-19 12:33:00,
2013-08-19 07:34:00,67.3,63.3,30.00,SSE,149,0.0,0.0,87,0.00,,SKC,0.00,VWS V14.01,2013-08-19 12:34:00,
2013-08-19 07:36:00,67.4,63.4,30.00,SSE,149,0.0,0.0,87,0.00,,SKC,0.00,VWS V14.01,2013-08-19 12:36:00,
2013-08-19 07:37:00,67.4,63.1,30.00,SSE,150,0.0,0.0,86,0.00,,SKC,0.00,VWS V14.01,2013-08-19 12:37:00,
2013-08-19 07:38:00,67.4,63.1,30.00,SSE,149,0.0,0.0,86,0.00,,SKC,0.00,VWS V14.01,2013-08-19 12:38:00,
2013-08-19 07:39:00,67.4,63.1,30.00,SSE,150,4.0,5.0,86,0.00,,SKC,0.00,VWS V14.01,2013-08-19 12:39:00,
2013-08-19 07:40:00,67.4,63.1,30.00,SSE,158,1.0,5.0,86,0.00,,---,0.00,VWS V14.01,2013-08-19 12:40:00,
2013-08-19 07:41:00,67.4,63.1,30.00,SSE,151,0.0,5.0,86,0.00,,SKC,0.00,VWS V14.01,2013-08-19 12:41:00,
2013-08-19 07:42:00,67.4,63.1,30.00,SSE,151,0.0,0.0,86,0.00,,SKC,0.00,VWS V14.01,2013-08-19 12:42:00,
2013-08-19 07:43:00,67.4,63.1,30.00,SSE,151,0.0,0.0,86,0.00,,SKC,0.00,VWS V14.01,2013-08-19 12:43:00,
2013-08-19 07:44:00,67.4,63.1,30.00,SSE,151,0.0,0.0,86,0.00,,SKC,0.00,VWS V14.01,2013-08-19 12:44:00,
2013-08-19 07:46:00,67.6,63.3,30.01,SSE,152,0.0,1.0,86,0.00,,SKC,0.00,VWS V14.01,2013-08-19 12:46:00,
2013-08-19 07:47:00,67.6,63.3,30.01,SSE,152,0.0,1.0,86,0.00,,SKC,0.00,VWS V14.01,2013-08-19 12:47:00,
2013-08-19 07:48:00,67.6,63.3,30.01,SSE,152,0.0,1.0,86,0.00,,SKC,0.00,VWS V14.01,2013-08-19 12:48:00,
2013-08-19 07:49:00,67.6,63.3,30.01,SSE,152,0.0,1.0,86,0.00,,SKC,0.00,VWS V14.01,2013-08-19 12:49:00,
2013-08-19 07:50:00,67.6,62.9,30.01,SSE,158,0.0,1.0,85,0.00,,---,0.00,VWS V14.01,2013-08-19 12:50:00,
2013-08-19 07:51:00,67.6,62.9,30.01,SSE,150,0.0,0.0,85,0.00,,SKC,0.00,VWS V14.01,2013-08-19 12:51:00,
2013-08-19 07:52:00,67.6,62.9,30.01,SSE,150,0.0,0.0,85,0.00,,SKC,0.00,VWS V14.01,2013-08-19 12:52:00,
2013-08-19 07:53:00,67.6,63.3,30.01,SSE,150,0.0,0.0,86,0.00,,SKC,0.00,VWS V14.01,2013-08-19 12:53:00,
2013-08-19 07:54:00,67.8,63.1,30.01,SSE,150,0.0,0.0,85,0.00,,SKC,0.00,VWS V14.01,2013-08-19 12:54:00,
2013-08-19 07:57:00,67.8,63.1,30.01,SSE,150,0.0,0.0,85,0.00,,SKC,0.00,VWS V14.01,2013-08-19 12:57:00,
2013-08-19 07:58:00,67.8,63.1,30.01,SSE,150,0.0,0.0,85,0.00,,SKC,0.00,VWS V14.01,2013-08-19 12:58:00,
2013-08-19 07:59:00,67.8,63.1,30.01,SSE,150,0.0,0.0,85,0.00,,SKC,0.00,VWS V14.01,2013-08-19 12:59:00,
2013-08-19 08:00:00,67.8,63.1,30.01,SSE,158,0.0,1.0,85,0.00,,---,0.00,VWS V14.01,2013-08-19 13:00:00,
2013-08-19 08:02:00,67.9,63.2,30.01,SSE,150,0.0,0.0,85,0.00,,SKC,0.00,VWS V14.01,2013-08-19 13:02:00,
2013-08-19 08:03:00,67.9,63.2,30.01,SSE,150,0.0,0.0,85,0.00,,SKC,0.00,VWS V14.01,2013-08-19 13:03:00,
2013-08-19 08:04:00,67.9,63.2,30.01,SSE,148,0.0,0.0,85,0.00,,SKC,0.00,VWS V14.01,2013-08-19 13:04:00,
2013-08-19 08:07:00,67.9,63.2,30.01,SSE,148,0.0,0.0,85,0.00,,SKC,0.00,VWS V14.01,2013-08-19 13:07:00,
2013-08-19 08:08:00,67.9,63.2,30.01,SSE,147,4.0,5.0,85,0.00,,SKC,0.00,VWS V14.01,2013-08-19 13:08:00,
2013-08-19 08:09:00,67.9,63.2,30.01,ESE,119,4.0,5.0,85,0.00,,SKC,0.00,VWS V14.01,2013-08-19 13:09:00,
2013-08-19 08:10:00,67.9,63.2,30.01,ESE,112,2.0,6.0,85,0.00,,---,0.00,VWS V14.01,2013-08-19 13:10:00,
2013-08-19 08:12:00,67.9,63.2,30.01,ESE,119,5.0,5.0,85,0.00,,SKC,0.00,VWS V14.01,2013-08-19 13:12:00,
2013-08-19 08:13:00,68.1,63.4,30.01,ESE,119,3.0,6.0,85,0.00,,SKC,0.00,VWS V14.01,2013-08-19 13:13:00,
2013-08-19 08:14:00,68.1,63.4,30.01,ESE,119,5.0,6.0,85,0.00,,SKC,0.00,VWS V14.01,2013-08-19 13:14:00,
2013-08-19 08:17:00,68.3,63.6,30.02,ESE,118,2.0,6.0,85,0.00,,SKC,0.00,VWS V14.01,2013-08-19 13:17:00,
2013-08-19 08:18:00,68.3,63.6,30.02,ESE,119,3.0,6.0,85,0.00,,SKC,0.00,VWS V14.01,2013-08-19 13:18:00,
2013-08-19 08:19:00,68.3,63.6,30.02,ESE,119,0.0,6.0,85,0.00,,SKC,0.00,VWS V14.01,2013-08-19 13:19:00,
2013-08-19 08:20:00,68.4,63.4,30.02,ESE,119,0.0,6.0,84,0.00,,SKC,0.00,VWS V14.01,2013-08-19 13:20:00,
2013-08-19 08:22:00,68.4,63.4,30.02,ESE,119,0.0,0.0,84,0.00,,SKC,0.00,VWS V14.01,2013-08-19 13:22:00,
2013-08-19 08:23:00,68.6,63.6,30.02,ESE,119,0.0,0.0,84,0.00,,SKC,0.00,VWS V14.01,2013-08-19 13:23:00,
2013-08-19 08:24:00,68.6,63.6,30.02,ESE,119,0.0,0.0,84,0.00,,SKC,0.00,VWS V14.01,2013-08-19 13:24:00,
2013-08-19 08:25:00,68.6,63.6,30.02,ESE,119,0.0,0.0,84,0.00,,SKC,0.00,VWS V14.01,2013-08-19 13:25:00,
2013-08-19 08:27:00,68.6,63.6,30.02,ESE,119,0.0,0.0,84,0.00,,SKC,0.00,VWS V14.01,2013-08-19 13:27:00,
2013-08-19 08:28:00,68.8,63.8,30.02,ESE,119,0.0,0.0,84,0.00,,SKC,0.00,VWS V14.01,2013-08-19 13:28:00,
2013-08-19 08:29:00,68.8,63.8,30.02,ESE,119,0.0,0.0,84,0.00,,SKC,0.00,VWS V14.01,2013-08-19 13:29:00,
2013-08-19 08:30:00,68.8,63.8,30.02,ESE,119,0.0,0.0,84,0.00,,SKC,0.00,VWS V14.01,2013-08-19 13:30:00,
2013-08-19 08:32:00,68.9,63.5,30.02,ESE,120,0.0,0.0,83,0.00,,SKC,0.00,VWS V14.01,2013-08-19 13:32:00,
2013-08-19 08:33:00,69.1,63.7,30.02,ESE,121,0.0,0.0,83,0.00,,SKC,0.00,VWS V14.01,2013-08-19 13:33:00,
2013-08-19 08:34:00,69.1,63.7,30.02,ESE,121,0.0,0.0,83,0.00,,SKC,0.00,VWS V14.01,2013-08-19 13:34:00,
2013-08-19 08:35:00,69.3,63.9,30.02,ESE,121,0.0,0.0,83,0.00,,SKC,0.00,VWS V14.01,2013-08-19 13:35:00,
2013-08-19 08:37:00,69.4,63.7,30.02,ESE,122,3.0,6.0,82,0.00,,SKC,0.00,VWS V14.01,2013-08-19 13:37:00,
2013-08-19 08:38:00,69.6,63.9,30.02,ESE,122,0.0,6.0,82,0.00,,SKC,0.00,VWS V14.01,2013-08-19 13:38:00,
2013-08-19 08:39:00,69.6,63.9,30.02,ESE,123,1.0,6.0,82,0.00,,SKC,0.00,VWS V14.01,2013-08-19 13:39:00,
2013-08-19 08:40:00,69.8,64.1,30.02,ESE,123,5.0,6.0,82,0.00,,SKC,0.00,VWS V14.01,2013-08-19 13:40:00,
2013-08-19 08:42:00,70.1,63.7,30.02,SE,128,8.0,10.0,80,0.00,,SKC,0.00,VWS V14.01,2013-08-19 13:42:00,
2013-08-19 08:43:00,70.1,63.7,30.02,SE,132,6.0,10.0,80,0.00,,SKC,0.00,VWS V14.01,2013-08-19 13:43:00,
2013-08-19 08:44:00,70.3,63.8,30.02,SE,132,6.0,10.0,80,0.00,,SKC,0.00,VWS V14.01,2013-08-19 13:44:00,
2013-08-19 08:45:00,70.3,63.5,30.02,SE,134,6.0,10.0,79,0.00,,SKC,0.00,VWS V14.01,2013-08-19 13:45:00,
2013-08-19 08:48:00,70.6,63.8,30.01,SE,136,5.0,10.0,79,0.00,,SKC,0.00,VWS V14.01,2013-08-19 13:48:00,
2013-08-19 08:49:00,70.6,63.8,30.01,SSE,153,7.0,10.0,79,0.00,,SKC,0.00,VWS V14.01,2013-08-19 13:49:00,
2013-08-19 08:50:00,70.8,63.6,30.01,SE,135,9.0,12.0,78,0.00,,SKC,0.00,VWS V14.01,2013-08-19 13:50:00,
2013-08-19 08:52:00,70.9,63.7,30.01,SE,141,7.0,11.0,78,0.00,,SKC,0.00,VWS V14.01,2013-08-19 13:52:00,
2013-08-19 08:53:00,70.9,63.7,30.01,SE,141,6.0,11.0,78,0.00,,SKC,0.00,VWS V14.01,2013-08-19 13:53:00,
2013-08-19 08:54:00,70.9,63.3,30.01,SE,133,2.0,11.0,77,0.00,,SKC,0.00,VWS V14.01,2013-08-19 13:54:00,
2013-08-19 08:55:00,71.1,63.5,30.01,SE,134,7.0,11.0,77,0.00,,SKC,0.00,VWS V14.01,2013-08-19 13:55:00,
2013-08-19 08:58:00,71.3,63.7,30.01,SE,127,9.0,11.0,77,0.00,,SKC,0.00,VWS V14.01,2013-08-19 13:58:00,
2013-08-19 08:59:00,71.5,63.9,30.01,ESE,115,5.0,11.0,77,0.00,,SKC,0.00,VWS V14.01,2013-08-19 13:59:00,
2013-08-19 09:00:00,71.6,63.6,30.01,ESE,119,2.0,11.0,76,0.00,,SKC,0.00,VWS V14.01,2013-08-19 14:00:00,
2013-08-19 09:03:00,71.8,63.8,30.01,SE,138,8.0,11.0,76,0.00,,SKC,0.00,VWS V14.01,2013-08-19 14:03:00,
2013-08-19 09:04:00,71.8,63.5,30.01,SSE,153,4.0,11.0,75,0.00,,SKC,0.00,VWS V14.01,2013-08-19 14:04:00,
2013-08-19 09:05:00,71.8,63.5,30.01,SSE,158,3.0,11.0,75,0.00,,SKC,0.00,VWS V14.01,2013-08-19 14:05:00,
2013-08-19 09:08:00,72.1,63.8,30.01,SSE,160,0.0,11.0,75,0.00,,SKC,0.00,VWS V14.01,2013-08-19 14:08:00,
2013-08-19 09:09:00,72.1,63.8,30.01,SSE,159,4.0,11.0,75,0.00,,SKC,0.00,VWS V14.01,2013-08-19 14:09:00,
2013-08-19 09:10:00,72.3,63.9,30.01,SSE,157,1.0,11.0,75,0.00,,SKC,0.00,VWS V14.01,2013-08-19 14:10:00,
2013-08-19 09:13:00,72.5,63.8,30.01,SE,143,11.0,11.0,74,0.00,,SKC,0.00,VWS V14.01,2013-08-19 14:13:00,
2013-08-19 09:14:00,72.5,64.1,30.01,SE,144,7.0,11.0,75,0.00,,SKC,0.00,VWS V14.01,2013-08-19 14:14:00,
2013-08-19 09:15:00,72.5,63.8,30.02,SE,132,9.0,13.0,74,0.00,,SKC,0.00,VWS V14.01,2013-08-19 14:15:00,
2013-08-19 09:18:00,72.5,63.4,30.02,SSE,148,9.0,13.0,73,0.00,,SKC,0.00,VWS V14.01,2013-08-19 14:18:00,
2013-08-19 09:19:00,72.5,63.4,30.02,SE,132,10.0,13.0,73,0.00,,SKC,0.00,VWS V14.01,2013-08-19 14:19:00,
2013-08-19 09:20:00,72.5,63.8,30.02,SSE,163,4.0,13.0,74,0.00,,SKC,0.00,VWS V14.01,2013-08-19 14:20:00,
2013-08-19 09:23:00,72.7,63.5,30.02,SSE,149,6.0,14.0,73,0.00,,SKC,0.00,VWS V14.01,2013-08-19 14:23:00,
2013-08-19 09:24:00,72.8,63.7,30.02,SE,146,10.0,14.0,73,0.00,,SKC,0.00,VWS V14.01,2013-08-19 14:24:00,
2013-08-19 09:25:00,72.8,63.7,30.02,SSE,154,5.0,14.0,73,0.00,,SKC,0.00,VWS V14.01,2013-08-19 14:25:00,
2013-08-19 09:28:00,73.0,63.8,30.02,SE,146,7.0,14.0,73,0.00,,SKC,0.00,VWS V14.01,2013-08-19 14:28:00,
2013-08-19 09:29:00,73.2,64.0,30.02,SE,126,8.0,14.0,73,0.00,,SKC,0.00,VWS V14.01,2013-08-19 14:29:00,
2013-08-19 09:30:00,73.2,64.0,30.02,SSE,150,11.0,14.0,73,0.00,,SKC,0.00,VWS V14.01,2013-08-19 14:30:00,
2013-08-19 09:33:00,73.5,64.3,30.02,SSE,155,5.0,12.0,73,0.00,,SKC,0.00,VWS V14.01,2013-08-19 14:33:00,
2013-08-19 09:34:00,73.5,64.3,30.02,SE,146,13.0,14.0,73,0.00,,SKC,0.00,VWS V14.01,2013-08-19 14:34:00,
2013-08-19 09:35:00,73.5,63.9,30.02,SSE,153,5.0,15.0,72,0.00,,SKC,0.00,VWS V14.01,2013-08-19 14:35:00,
2013-08-19 09:36:00,73.7,63.7,30.02,SSE,156,3.0,15.0,71,0.00,,SKC,0.00,VWS V14.01,2013-08-19 14:36:00,
2013-08-19 09:38:00,73.9,63.9,30.02,SSE,155,3.0,15.0,71,0.00,,SKC,0.00,VWS V14.01,2013-08-19 14:38:00,
2013-08-19 09:39:00,73.9,63.9,30.02,SSE,149,3.0,15.0,71,0.00,,SKC,0.00,VWS V14.01,2013-08-19 14:39:00,
2013-08-19 09:40:00,73.9,63.9,30.02,SSE,156,3.0,15.0,71,0.00,,SKC,0.00,VWS V14.01,2013-08-19 14:40:00,
2013-08-19 09:41:00,74.0,64.0,30.02,SSE,155,0.0,15.0,71,0.00,,SKC,0.00,VWS V14.01,2013-08-19 14:41:00,
2013-08-19 09:43:00,74.4,64.8,30.02,SSE,152,5.0,13.0,72,0.00,,SKC,0.00,VWS V14.01,2013-08-19 14:43:00,
2013-08-19 09:44:00,74.4,64.0,30.02,SSE,155,3.0,13.0,70,0.00,,SKC,0.00,VWS V14.01,2013-08-19 14:44:00,
2013-08-19 09:45:00,74.4,64.0,30.02,South,186,4.0,13.0,70,0.00,,SKC,0.00,VWS V14.01,2013-08-19 14:45:00,
2013-08-19 09:46:00,74.4,64.0,30.02,SSE,159,2.0,13.0,70,0.00,,SKC,0.00,VWS V14.01,2013-08-19 14:46:00,
2013-08-19 09:48:00,74.6,63.8,30.02,South,180,5.0,15.0,69,0.00,,SKC,0.00,VWS V14.01,2013-08-19 14:48:00,
2013-08-19 09:49:00,74.6,63.8,30.02,South,180,1.0,15.0,69,0.00,,SKC,0.00,VWS V14.01,2013-08-19 14:49:00,
2013-08-19 09:50:00,74.6,64.2,30.02,SSE,150,5.0,15.0,70,0.00,,SKC,0.00,VWS V14.01,2013-08-19 14:50:00,
2013-08-19 09:51:00,74.6,64.2,30.02,SSE,154,2.0,15.0,70,0.00,,SKC,0.00,VWS V14.01,2013-08-19 14:51:00,
2013-08-19 09:54:00,74.6,64.2,30.02,SSE,155,5.0,13.0,70,0.00,,SKC,0.00,VWS V14.01,2013-08-19 14:54:00,
2013-08-19 09:55:00,74.7,64.7,30.02,South,182,0.0,13.0,71,0.00,,SKC,0.00,VWS V14.01,2013-08-19 14:55:00,
2013-08-19 09:56:00,74.7,64.3,30.02,SSE,148,5.0,13.0,70,0.00,,SKC,0.00,VWS V14.01,2013-08-19 14:56:00,
2013-08-19 09:59:00,74.9,64.5,30.02,South,171,3.0,13.0,70,0.00,,SKC,0.00,VWS V14.01,2013-08-19 14:59:00,
2013-08-19 10:00:00,74.9,64.5,30.02,SE,139,4.0,13.0,70,0.00,,SKC,0.00,VWS V14.01,2013-08-19 15:00:00,
2013-08-19 10:01:00,74.9,64.5,30.02,South,182,7.0,13.0,70,0.00,,SKC,0.00,VWS V14.01,2013-08-19 15:01:00,
2013-08-19 10:04:00,75.1,63.8,30.02,South,182,2.0,10.0,68,0.00,,SKC,0.00,VWS V14.01,2013-08-19 15:04:00,
2013-08-19 10:05:00,75.1,63.8,30.02,SSE,156,3.0,14.0,68,0.00,,SKC,0.00,VWS V14.01,2013-08-19 15:05:00,
2013-08-19 10:06:00,75.1,63.8,30.02,SSE,165,11.0,14.0,68,0.00,,SKC,0.00,VWS V14.01,2013-08-19 15:06:00,
2013-08-19 10:09:00,75.4,64.1,30.02,SSE,155,4.0,14.0,68,0.00,,SKC,0.00,VWS V14.01,2013-08-19 15:09:00,
2013-08-19 10:10:00,75.4,64.1,30.02,SSE,161,7.0,14.0,68,0.00,,SKC,0.00,VWS V14.01,2013-08-19 15:10:00,
2013-08-19 10:11:00,75.4,64.1,30.02,SSE,151,3.0,14.0,68,0.00,,SKC,0.00,VWS V14.01,2013-08-19 15:11:00,
2013-08-19 10:14:00,75.6,63.9,30.02,SSE,149,5.0,15.0,67,0.00,,SKC,0.00,VWS V14.01,2013-08-19 15:14:00,
2013-08-19 10:15:00,75.8,64.1,30.02,SE,144,3.0,15.0,67,0.00,,SKC,0.00,VWS V14.01,2013-08-19 15:15:00,
2013-08-19 10:16:00,75.8,64.1,30.02,SSE,159,3.0,15.0,67,0.00,,SKC,0.00,VWS V14.01,2013-08-19 15:16:00,
2013-08-19 10:19:00,75.6,63.0,30.02,SSW,207,4.0,15.0,65,0.00,,SKC,0.00,VWS V14.01,2013-08-19 15:19:00,
2013-08-19 10:20:00,75.6,63.0,30.02,SSE,157,8.0,15.0,65,0.00,,SKC,0.00,VWS V14.01,2013-08-19 15:20:00,
2013-08-19 10:21:00,75.6,63.5,30.02,SSE,159,3.0,15.0,66,0.00,,SKC,0.00,VWS V14.01,2013-08-19 15:21:00,
2013-08-19 10:24:00,75.8,63.6,30.02,South,175,4.0,17.0,66,0.00,,SKC,0.00,VWS V14.01,2013-08-19 15:24:00,
2013-08-19 10:25:00,75.8,63.6,30.02,SSE,153,2.0,17.0,66,0.00,,SKC,0.00,VWS V14.01,2013-08-19 15:25:00,
2013-08-19 10:26:00,75.8,63.6,30.02,South,186,10.0,17.0,66,0.00,,SKC,0.00,VWS V14.01,2013-08-19 15:26:00,
2013-08-19 10:29:00,75.8,63.2,30.02,South,171,3.0,17.0,65,0.00,,SKC,0.00,VWS V14.01,2013-08-19 15:29:00,
2013-08-19 10:30:00,75.8,63.2,30.02,SSE,161,4.0,17.0,65,0.00,,SKC,0.00,VWS V14.01,2013-08-19 15:30:00,
2013-08-19 10:31:00,75.8,63.6,30.02,South,176,4.0,17.0,66,0.00,,SKC,0.00,VWS V14.01,2013-08-19 15:31:00,
2013-08-19 10:34:00,76.0,63.8,30.02,South,190,6.0,7.0,66,0.00,,SKC,0.00,VWS V14.01,2013-08-19 15:34:00,
2013-08-19 10:35:00,76.0,63.8,30.02,South,190,4.0,7.0,66,0.00,,SKC,0.00,VWS V14.01,2013-08-19 15:35:00,
2013-08-19 10:36:00,76.0,63.8,30.02,SW,219,5.0,7.0,66,0.00,,SKC,0.00,VWS V14.01,2013-08-19 15:36:00,
2013-08-19 10:40:00,76.0,63.4,30.02,South,188,5.0,10.0,65,0.00,,SKC,0.00,VWS V14.01,2013-08-19 15:40:00,
2013-08-19 10:41:00,76.0,63.4,30.02,South,178,5.0,5.0,65,0.00,,SKC,0.00,VWS V14.01,2013-08-19 15:41:00,
2013-08-19 10:45:00,76.1,63.5,30.02,SSW,207,10.0,10.0,65,0.00,,SKC,0.00,VWS V14.01,2013-08-19 15:45:00,
2013-08-19 10:46:00,76.1,63.5,30.02,SSE,159,4.0,11.0,65,0.00,,SKC,0.00,VWS V14.01,2013-08-19 15:46:00,
2013-08-19 10:50:00,76.0,63.4,30.02,South,187,5.0,13.0,65,0.00,,SKC,0.00,VWS V14.01,2013-08-19 15:50:00,
2013-08-19 10:51:00,76.0,63.4,30.02,SSE,151,5.0,13.0,65,0.00,,SKC,0.00,VWS V14.01,2013-08-19 15:51:00,
2013-08-19 10:55:00,76.1,63.5,30.02,South,185,1.0,13.0,65,0.00,,SKC,0.00,VWS V14.01,2013-08-19 15:55:00,
2013-08-19 10:56:00,76.1,63.5,30.02,SSE,163,2.0,13.0,65,0.00,,SKC,0.00,VWS V14.01,2013-08-19 15:56:00,
2013-08-19 11:00:00,76.3,64.1,30.02,South,190,3.0,13.0,66,0.00,,SKC,0.00,VWS V14.01,2013-08-19 16:00:00,
2013-08-19 11:01:00,76.3,64.1,30.02,SSE,159,3.0,13.0,66,0.00,,SKC,0.00,VWS V14.01,2013-08-19 16:01:00,
2013-08-19 11:05:00,77.0,63.5,30.02,SSE,155,14.0,15.0,63,0.00,,SKC,0.00,VWS V14.01,2013-08-19 16:05:00,
2013-08-19 11:06:00,77.0,63.5,30.02,SE,142,13.0,15.0,63,0.00,,SKC,0.00,VWS V14.01,2013-08-19 16:06:00,
2013-08-19 11:10:00,77.2,63.2,30.02,SE,137,11.0,16.0,62,0.00,,SKC,0.00,VWS V14.01,2013-08-19 16:10:00,
2013-08-19 11:11:00,77.2,63.6,30.02,SSE,154,5.0,16.0,63,0.00,,SKC,0.00,VWS V14.01,2013-08-19 16:11:00,
2013-08-19 11:15:00,76.8,62.8,30.02,South,176,9.0,18.0,62,0.00,,SKC,0.00,VWS V14.01,2013-08-19 16:15:00,
2013-08-19 11:16:00,77.0,63.5,30.02,SSE,161,11.0,18.0,63,0.00,,SKC,0.00,VWS V14.01,2013-08-19 16:16:00,
2013-08-19 11:17:00,77.0,63.5,30.02,SE,143,8.0,18.0,63,0.00,,SKC,0.00,VWS V14.01,2013-08-19 16:17:00,
2013-08-19 11:20:00,76.8,63.7,30.02,SSE,154,12.0,18.0,64,0.00,,SKC,0.00,VWS V14.01,2013-08-19 16:20:00,
2013-08-19 11:21:00,76.8,63.7,30.02,South,182,6.0,18.0,64,0.00,,SKC,0.00,VWS V14.01,2013-08-19 16:21:00,
2013-08-19 11:22:00,76.8,63.7,30.02,SSE,160,3.0,10.0,64,0.00,,SKC,0.00,VWS V14.01,2013-08-19 16:22:00,
2013-08-19 11:25:00,77.0,64.3,30.02,SSE,155,2.0,10.0,65,0.00,,SKC,0.00,VWS V14.01,2013-08-19 16:25:00,
2013-08-19 11:26:00,77.2,64.5,30.02,SSE,155,3.0,10.0,65,0.00,,SKC,0.00,VWS V14.01,2013-08-19 16:26:00,
2013-08-19 11:27:00,77.2,64.5,30.02,SE,146,11.0,11.0,65,0.00,,SKC,0.00,VWS V14.01,2013-08-19 16:27:00,
2013-08-19 11:30:00,77.6,64.9,30.02,SSE,149,7.0,11.0,65,0.00,,SKC,0.00,VWS V14.01,2013-08-19 16:30:00,
2013-08-19 11:31:00,77.6,64.9,30.02,SE,130,9.0,11.0,65,0.00,,SKC,0.00,VWS V14.01,2013-08-19 16:31:00,
2013-08-19 11:32:00,77.6,64.5,30.02,SSE,154,15.0,15.0,64,0.00,,SKC,0.00,VWS V14.01,2013-08-19 16:32:00,
2013-08-19 11:36:00,77.6,64.9,30.02,SSE,148,4.0,15.0,65,0.00,,SKC,0.00,VWS V14.01,2013-08-19 16:36:00,
2013-08-19 11:38:00,77.6,64.5,30.02,SSE,150,6.0,15.0,64,0.00,,SKC,0.00,VWS V14.01,2013-08-19 16:38:00,
2013-08-19 11:40:00,78.1,64.9,30.02,SSE,158,8.0,15.0,64,0.00,,---,0.00,VWS V14.01,2013-08-19 16:40:00,
2013-08-19 11:41:00,78.1,64.9,30.02,SE,140,9.0,15.0,64,0.00,,SKC,0.00,VWS V14.01,2013-08-19 16:41:00,
2013-08-19 11:43:00,78.5,65.3,30.02,SE,133,10.0,14.0,64,0.00,,SKC,0.00,VWS V14.01,2013-08-19 16:43:00,
2013-08-19 11:46:00,78.5,64.9,30.01,SSE,149,2.0,14.0,63,0.00,,SKC,0.00,VWS V14.01,2013-08-19 16:46:00,
2013-08-19 11:48:00,78.8,65.2,30.01,SSE,153,7.0,16.0,63,0.00,,SKC,0.00,VWS V14.01,2013-08-19 16:48:00,
2013-08-19 11:50:00,78.6,64.0,30.01,SSE,158,8.0,18.0,61,0.00,,---,0.00,VWS V14.01,2013-08-19 16:50:00,
2013-08-19 11:51:00,78.6,63.6,30.01,SSE,153,7.0,18.0,60,0.00,,SKC,0.00,VWS V14.01,2013-08-19 16:51:00,
2013-08-19 11:52:00,78.6,64.0,30.01,SSE,168,4.0,11.0,61,0.00,,SKC,0.00,VWS V14.01,2013-08-19 16:52:00,
2013-08-19 11:53:00,78.8,63.8,30.01,SSE,147,5.0,14.0,60,0.00,,SKC,0.00,VWS V14.01,2013-08-19 16:53:00,
2013-08-19 11:56:00,78.8,64.2,30.01,SSE,165,2.0,15.0,61,0.00,,SKC,0.00,VWS V14.01,2013-08-19 16:56:00,
2013-08-19 11:57:00,78.8,64.2,30.01,SE,146,5.0,15.0,61,0.00,,SKC,0.00,VWS V14.01,2013-08-19 16:57:00,
2013-08-19 11:58:00,78.8,64.2,30.01,SE,146,14.0,16.0,61,0.00,,SKC,0.00,VWS V14.01,2013-08-19 16:58:00,
2013-08-19 12:00:00,78.8,64.7,30.01,SSE,158,9.0,18.0,62,0.00,,---,0.00,VWS V14.01,2013-08-19 17:00:00,
2013-08-19 12:02:00,78.8,63.8,30.01,SE,135,12.0,16.0,60,0.00,,SKC,0.00,VWS V14.01,2013-08-19 17:02:00,
2013-08-19 12:03:00,78.8,63.8,30.01,SE,134,18.0,19.0,60,0.00,,SKC,0.00,VWS V14.01,2013-08-19 17:03:00,
2013-08-19 12:07:00,79.0,64.4,30.01,SSE,149,12.0,19.0,61,0.00,,SKC,0.00,VWS V14.01,2013-08-19 17:07:00,
2013-08-19 12:08:00,79.2,64.6,30.01,SE,142,12.0,19.0,61,0.00,,SKC,0.00,VWS V14.01,2013-08-19 17:08:00,
2013-08-19 12:10:00,79.6,64.5,30.01,SSE,158,11.0,19.0,60,0.00,,---,0.00,VWS V14.01,2013-08-19 17:10:00,
2013-08-19 12:12:00,79.6,64.5,30.01,SE,141,15.0,18.0,60,0.00,,SKC,0.00,VWS V14.01,2013-08-19 17:12:00,
2013-08-19 12:13:00,79.8,65.2,30.01,SE,140,12.0,18.0,61,0.00,,SKC,0.00,VWS V14.01,2013-08-19 17:13:00,
2013-08-19 12:17:00,79.9,63.8,30.00,SSE,153,5.0,18.0,58,0.00,,SKC,0.00,VWS V14.01,2013-08-19 17:17:00,
2013-08-19 12:18:00,79.8,64.2,30.00,SSW,198,6.0,18.0,59,0.00,,SKC,0.00,VWS V14.01,2013-08-19 17:18:00,
2013-08-19 12:20:00,79.9,64.8,30.00,SSE,158,8.0,18.0,60,0.00,,---,0.00,VWS V14.01,2013-08-19 17:20:00,
2013-08-19 12:22:00,79.9,64.8,30.00,SSE,156,7.0,12.0,60,0.00,,SKC,0.00,VWS V14.01,2013-08-19 17:22:00,
2013-08-19 12:23:00,79.9,64.3,30.00,SSE,152,13.0,15.0,59,0.00,,SKC,0.00,VWS V14.01,2013-08-19 17:23:00,
2013-08-19 12:27:00,80.1,64.5,30.00,SE,132,11.0,19.0,59,0.00,,SKC,0.00,VWS V14.01,2013-08-19 17:27:00,
2013-08-19 12:28:00,80.3,64.7,30.00,SSE,168,11.0,19.0,59,0.00,,SKC,0.00,VWS V14.01,2013-08-19 17:28:00,
2013-08-19 12:30:00,80.1,64.5,29.99,SSE,158,10.0,20.0,59,0.00,,---,0.00,VWS V14.01,2013-08-19 17:30:00,
2013-08-19 12:32:00,80.3,65.2,29.99,SE,136,13.0,13.0,60,0.00,,SKC,0.00,VWS V14.01,2013-08-19 17:32:00,
2013-08-19 12:33:00,80.3,65.2,29.99,SE,143,15.0,15.0,60,0.00,,SKC,0.00,VWS V14.01,2013-08-19 17:33:00,
2013-08-19 12:37:00,80.7,65.5,29.99,SSE,164,12.0,18.0,60,0.00,,SKC,0.00,VWS V14.01,2013-08-19 17:37:00,
2013-08-19 12:38:00,80.7,65.5,29.99,SE,136,4.0,18.0,60,0.00,,SKC,0.00,VWS V14.01,2013-08-19 17:38:00,
2013-08-19 12:40:00,80.7,64.6,29.99,SSE,158,11.0,18.0,58,0.00,,---,0.00,VWS V14.01,2013-08-19 17:40:00,
2013-08-19 12:42:00,80.7,64.6,29.99,South,178,4.0,12.0,58,0.00,,SKC,0.00,VWS V14.01,2013-08-19 17:42:00,
2013-08-19 12:43:00,80.7,65.1,29.99,SSE,152,3.0,13.0,59,0.00,,SKC,0.00,VWS V14.01,2013-08-19 17:43:00,
2013-08-19 12:47:00,80.9,65.2,29.99,SSE,153,11.0,17.0,59,0.00,,SKC,0.00,VWS V14.01,2013-08-19 17:47:00,
2013-08-19 12:48:00,80.9,65.2,29.99,SSE,155,10.0,17.0,59,0.00,,SKC,0.00,VWS V14.01,2013-08-19 17:48:00,
2013-08-19 12:49:00,81.1,64.9,29.99,SSW,192,5.0,17.0,58,0.00,,SKC,0.00,VWS V14.01,2013-08-19 17:49:00,
2013-08-19 12:50:00,81.1,65.4,29.99,SSE,158,9.0,17.0,59,0.00,,---,0.00,VWS V14.01,2013-08-19 17:50:00,
2013-08-19 12:52:00,81.1,64.4,29.99,SE,144,11.0,11.0,57,0.00,,SKC,0.00,VWS V14.01,2013-08-19 17:52:00,
2013-08-19 12:53:00,81.1,64.9,29.99,SSW,207,4.0,13.0,58,0.00,,SKC,0.00,VWS V14.01,2013-08-19 17:53:00,
2013-08-19 12:54:00,81.1,64.9,29.99,SE,141,4.0,13.0,58,0.00,,SKC,0.00,VWS V14.01,2013-08-19 17:54:00,
2013-08-19 12:58:00,81.2,65.5,29.99,South,188,4.0,13.0,59,0.00,,SKC,0.00,VWS V14.01,2013-08-19 17:58:00,
2013-08-19 12:59:00,81.4,65.7,29.99,SSE,159,5.0,13.0,59,0.00,,SKC,0.00,VWS V14.01,2013-08-19 17:59:00,
2013-08-19 13:00:00,81.6,65.4,29.99,SSE,158,5.0,13.0,58,0.00,,---,0.00,VWS V14.01,2013-08-19 18:00:00,
2013-08-19 13:03:00,81.6,65.9,29.99,SSE,168,5.0,8.0,59,0.00,,SKC,0.00,VWS V14.01,2013-08-19 18:03:00,
2013-08-19 13:04:00,81.6,64.9,29.99,SSW,196,4.0,10.0,57,0.00,,SKC,0.00,VWS V14.01,2013-08-19 18:04:00,
2013-08-19 13:08:00,81.8,65.1,29.99,SSE,147,2.0,10.0,57,0.00,,SKC,0.00,VWS V14.01,2013-08-19 18:08:00,
2013-08-19 13:09:00,81.8,65.1,29.99,South,190,4.0,10.0,57,0.00,,SKC,0.00,VWS V14.01,2013-08-19 18:09:00,
2013-08-19 13:10:00,81.8,65.1,29.99,SSW,202,5.0,16.0,57,0.00,,---,0.00,VWS V14.01,2013-08-19 18:10:00,
2013-08-19 13:13:00,81.6,64.9,29.99,SSE,155,4.0,15.0,57,0.00,,SKC,0.00,VWS V14.01,2013-08-19 18:13:00,
2013-08-19 13:14:00,81.6,64.4,29.99,SSE,154,15.0,15.0,56,0.00,,SKC,0.00,VWS V14.01,2013-08-19 18:14:00,
2013-08-19 13:18:00,81.6,64.4,29.99,SSE,148,11.0,21.0,56,0.00,,SKC,0.00,VWS V14.01,2013-08-19 18:18:00,
2013-08-19 13:19:00,81.8,64.6,29.99,SSE,155,10.0,21.0,56,0.00,,SKC,0.00,VWS V14.01,2013-08-19 18:19:00,
2013-08-19 13:20:00,82.0,66.8,29.99,SSE,158,10.0,21.0,60,0.00,,---,0.00,VWS V14.01,2013-08-19 18:20:00,
2013-08-19 13:23:00,82.2,65.5,29.99,SSE,153,2.0,12.0,57,0.00,,SKC,0.00,VWS V14.01,2013-08-19 18:23:00,
2013-08-19 13:24:00,82.2,65.5,29.99,SSW,193,3.0,12.0,57,0.00,,SKC,0.00,VWS V14.01,2013-08-19 18:24:00,
2013-08-19 13:28:00,82.4,66.7,29.99,SSE,149,5.0,12.0,59,0.00,,SKC,0.00,VWS V14.01,2013-08-19 18:28:00,
2013-08-19 13:29:00,82.4,65.7,29.99,South,173,3.0,16.0,57,0.00,,SKC,0.00,VWS V14.01,2013-08-19 18:29:00,
2013-08-19 13:30:00,82.2,65.0,29.98,South,180,4.0,16.0,56,0.00,,---,0.00,VWS V14.01,2013-08-19 18:30:00,
2013-08-19 13:33:00,82.2,65.5,29.98,SSE,157,6.0,12.0,57,0.00,,SKC,0.00,VWS V14.01,2013-08-19 18:33:00,
2013-08-19 13:34:00,82.2,65.5,29.98,SE,146,6.0,16.0,57,0.00,,SKC,0.00,VWS V14.01,2013-08-19 18:34:00,
2013-08-19 13:38:00,82.4,66.2,29.98,SSW,201,5.0,16.0,58,0.00,,SKC,0.00,VWS V14.01,2013-08-19 18:38:00,
2013-08-19 13:39:00,82.4,66.2,29.98,SSW,208,5.0,16.0,58,0.00,,SKC,0.00,VWS V14.01,2013-08-19 18:39:00,
2013-08-19 13:40:00,82.6,65.8,29.98,SSE,158,6.0,16.0,57,0.00,,---,0.00,VWS V14.01,2013-08-19 18:40:00,
2013-08-19 13:43:00,82.6,66.8,29.98,ESE,104,4.0,8.0,59,0.00,,SKC,0.00,VWS V14.01,2013-08-19 18:43:00,
2013-08-19 13:44:00,82.6,66.8,29.98,South,172,10.0,10.0,59,0.00,,SKC,0.00,VWS V14.01,2013-08-19 18:44:00,
2013-08-19 13:48:00,82.4,65.1,29.98,SSW,199,2.0,12.0,56,0.00,,SKC,0.00,VWS V14.01,2013-08-19 18:48:00,
2013-08-19 13:49:00,82.4,65.1,29.98,SSE,157,4.0,12.0,56,0.00,,SKC,0.00,VWS V14.01,2013-08-19 18:49:00,
2013-08-19 13:50:00,82.6,65.8,29.98,SSW,202,5.0,14.0,57,0.00,,---,0.00,VWS V14.01,2013-08-19 18:50:00,
2013-08-19 13:53:00,82.6,65.8,29.98,SSE,165,6.0,14.0,57,0.00,,SKC,0.00,VWS V14.01,2013-08-19 18:53:00,
2013-08-19 13:54:00,82.6,65.8,29.98,SE,143,15.0,16.0,57,0.00,,SKC,0.00,VWS V14.01,2013-08-19 18:54:00,
2013-08-19 13:55:00,82.6,65.3,29.98,SSE,162,2.0,16.0,56,0.00,,SKC,0.00,VWS V14.01,2013-08-19 18:55:00,
2013-08-19 13:58:00,82.8,66.0,29.98,SSE,154,5.0,16.0,57,0.00,,SKC,0.00,VWS V14.01,2013-08-19 18:58:00,
2013-08-19 13:59:00,82.8,66.0,29.98,South,180,4.0,16.0,57,0.00,,SKC,0.00,VWS V14.01,2013-08-19 18:59:00,
2013-08-19 14:00:00,82.8,66.0,29.98,South,188,7.0,16.0,57,0.00,,SKC,0.00,VWS V14.01,2013-08-19 19:00:00,
2013-08-19 14:03:00,82.8,66.0,29.98,SSE,154,5.0,17.0,57,0.00,,SKC,0.00,VWS V14.01,2013-08-19 19:03:00,
2013-08-19 14:04:00,82.8,66.0,29.98,SSE,154,0.0,17.0,57,0.00,,SKC,0.00,VWS V14.01,2013-08-19 19:04:00,
2013-08-19 14:05:00,82.8,66.0,29.98,South,180,3.0,17.0,57,0.00,,SKC,0.00,VWS V14.01,2013-08-19 19:05:00,
2013-08-19 14:09:00,83.0,65.7,29.98,SSE,154,4.0,20.0,56,0.00,,SKC,0.00,VWS V14.01,2013-08-19 19:09:00,
2013-08-19 14:10:00,83.0,65.7,29.98,SSE,159,3.0,20.0,56,0.00,,SKC,0.00,VWS V14.01,2013-08-19 19:10:00,
2013-08-19 14:14:00,83.0,66.2,29.98,South,177,4.0,19.0,57,0.00,,SKC,0.00,VWS V14.01,2013-08-19 19:14:00,
2013-08-19 14:15:00,83.0,65.7,29.98,South,182,6.0,19.0,56,0.00,,SKC,0.00,VWS V14.01,2013-08-19 19:15:00,
2013-08-19 14:19:00,83.0,66.7,29.98,SSE,150,5.0,19.0,58,0.00,,SKC,0.00,VWS V14.01,2013-08-19 19:19:00,
2013-08-19 14:20:00,83.0,66.2,29.98,SSE,157,5.0,19.0,57,0.00,,SKC,0.00,VWS V14.01,2013-08-19 19:20:00,
2013-08-19 14:24:00,83.2,66.9,29.98,SSW,208,7.0,11.0,58,0.00,,SKC,0.00,VWS V14.01,2013-08-19 19:24:00,
2013-08-19 14:25:00,83.4,67.1,29.98,South,190,4.0,11.0,58,0.00,,SKC,0.00,VWS V14.01,2013-08-19 19:25:00,
2013-08-19 14:29:00,83.4,66.6,29.98,SSE,158,2.0,13.0,57,0.00,,SKC,0.00,VWS V14.01,2013-08-19 19:29:00,
2013-08-19 14:30:00,83.4,66.1,29.98,SE,135,7.0,13.0,56,0.00,,SKC,0.00,VWS V14.01,2013-08-19 19:30:00,
2013-08-19 14:34:00,83.4,66.1,29.97,SSW,200,2.0,11.0,56,0.00,,SKC,0.00,VWS V14.01,2013-08-19 19:34:00,
2013-08-19 14:35:00,83.4,67.6,29.97,SSE,164,0.0,11.0,59,0.00,,SKC,0.00,VWS V14.01,2013-08-19 19:35:00,
2013-08-19 14:39:00,83.4,66.6,29.97,South,189,2.0,14.0,57,0.00,,SKC,0.00,VWS V14.01,2013-08-19 19:39:00,
2013-08-19 14:40:00,83.4,65.0,29.97,SSW,193,1.0,14.0,54,0.00,,SKC,0.00,VWS V14.01,2013-08-19 19:40:00,
2013-08-19 14:44:00,83.8,67.5,29.97,SSE,154,7.0,17.0,58,0.00,,SKC,0.00,VWS V14.01,2013-08-19 19:44:00,
2013-08-19 14:45:00,84.0,67.1,29.97,SSE,152,10.0,17.0,57,0.00,,SKC,0.00,VWS V14.01,2013-08-19 19:45:00,
2013-08-19 14:49:00,84.0,67.1,29.97,SSE,158,6.0,18.0,57,0.00,,SKC,0.00,VWS V14.01,2013-08-19 19:49:00,
2013-08-19 14:50:00,84.0,67.1,29.97,South,169,3.0,18.0,57,0.00,,SKC,0.00,VWS V14.01,2013-08-19 19:50:00,
2013-08-19 14:54:00,84.0,67.7,29.97,SSW,204,4.0,17.0,58,0.00,,SKC,0.00,VWS V14.01,2013-08-19 19:54:00,
2013-08-19 14:55:00,84.0,67.1,29.97,South,177,4.0,17.0,57,0.00,,SKC,0.00,VWS V14.01,2013-08-19 19:55:00,
2013-08-19 14:59:00,84.0,66.1,29.97,SSE,164,4.0,17.0,55,0.00,,SKC,0.00,VWS V14.01,2013-08-19 19:59:00,
2013-08-19 15:00:00,84.0,66.6,29.97,SSW,196,10.0,17.0,56,0.00,,SKC,0.00,VWS V14.01,2013-08-19 20:00:00,
2013-08-19 15:04:00,84.1,66.7,29.96,South,169,4.0,17.0,56,0.00,,SKC,0.00,VWS V14.01,2013-08-19 20:04:00,
2013-08-19 15:05:00,84.3,67.4,29.96,SSE,149,13.0,17.0,57,0.00,,SKC,0.00,VWS V14.01,2013-08-19 20:05:00,
2013-08-19 15:09:00,84.1,65.7,29.96,South,170,6.0,17.0,54,0.00,,SKC,0.00,VWS V14.01,2013-08-19 20:09:00,
2013-08-19 15:10:00,84.1,65.7,29.96,SSE,162,7.0,17.0,54,0.00,,SKC,0.00,VWS V14.01,2013-08-19 20:10:00,
2013-08-19 15:14:00,84.1,65.7,29.96,SSW,205,5.0,10.0,54,0.00,,SKC,0.00,VWS V14.01,2013-08-19 20:14:00,
2013-08-19 15:15:00,84.1,65.7,29.96,SSW,205,3.0,10.0,54,0.00,,SKC,0.00,VWS V14.01,2013-08-19 20:15:00,
2013-08-19 15:16:00,84.1,65.7,29.96,SSW,205,2.0,10.0,54,0.00,,SKC,0.00,VWS V14.01,2013-08-19 20:16:00,
2013-08-19 15:19:00,84.3,66.9,29.96,South,181,9.0,10.0,56,0.00,,SKC,0.00,VWS V14.01,2013-08-19 20:19:00,
2013-08-19 15:20:00,84.3,66.9,29.96,SSE,157,3.0,11.0,56,0.00,,SKC,0.00,VWS V14.01,2013-08-19 20:20:00,
2013-08-19 15:21:00,84.3,66.9,29.96,SSE,158,7.0,13.0,56,0.00,,SKC,0.00,VWS V14.01,2013-08-19 20:21:00,
2013-08-19 15:25:00,84.5,67.1,29.96,SSE,155,5.0,19.0,56,0.00,,SKC,0.00,VWS V14.01,2013-08-19 20:25:00,
2013-08-19 15:26:00,84.5,66.6,29.96,SSE,155,4.0,19.0,55,0.00,,SKC,0.00,VWS V14.01,2013-08-19 20:26:00,
2013-08-19 15:30:00,84.5,65.5,29.96,SSE,153,6.0,19.0,53,0.00,,SKC,0.00,VWS V14.01,2013-08-19 20:30:00,
2013-08-19 15:31:00,84.3,65.9,29.95,SSE,154,6.0,19.0,54,0.00,,SKC,0.00,VWS V14.01,2013-08-19 20:31:00,
2013-08-19 15:35:00,84.5,66.6,29.95,South,180,4.0,14.0,55,0.00,,SKC,0.00,VWS V14.01,2013-08-19 20:35:00,
2013-08-19 15:36:00,84.5,66.6,29.95,SSW,194,5.0,14.0,55,0.00,,SKC,0.00,VWS V14.01,2013-08-19 20:36:00,
2013-08-19 15:40:00,84.5,67.6,29.95,SSE,161,4.0,14.0,57,0.00,,SKC,0.00,VWS V14.01,2013-08-19 20:40:00,
2013-08-19 15:41:00,84.5,67.1,29.95,SSE,165,2.0,14.0,56,0.00,,SKC,0.00,VWS V14.01,2013-08-19 20:41:00,
2013-08-19 15:45:00,84.5,66.6,29.95,South,190,4.0,15.0,55,0.00,,SKC,0.00,VWS V14.01,2013-08-19 20:45:00,
2013-08-19 15:46:00,84.5,66.6,29.94,South,173,1.0,15.0,55,0.00,,SKC,0.00,VWS V14.01,2013-08-19 20:46:00,
2013-08-19 15:50:00,84.5,67.1,29.94,SE,140,15.0,15.0,56,0.00,,SKC,0.00,VWS V14.01,2013-08-19 20:50:00,
2013-08-19 15:51:00,84.7,67.3,29.94,South,185,4.0,16.0,56,0.00,,SKC,0.00,VWS V14.01,2013-08-19 20:51:00,
2013-08-19 15:55:00,84.9,66.9,29.94,SSE,157,2.0,10.0,55,0.00,,SKC,0.00,VWS V14.01,2013-08-19 20:55:00,
2013-08-19 15:56:00,84.9,66.4,29.94,SW,223,5.0,10.0,54,0.00,,SKC,0.00,VWS V14.01,2013-08-19 20:56:00,
2013-08-19 16:00:00,85.1,66.1,29.94,SSE,157,0.0,10.0,53,0.00,,SKC,0.00,VWS V14.01,2013-08-19 21:00:00,
2013-08-19 16:01:00,85.1,66.6,29.94,SSE,150,0.0,10.0,54,0.00,,SKC,0.00,VWS V14.01,2013-08-19 21:01:00,
2013-08-19 16:05:00,85.1,65.5,29.94,SSW,195,4.0,12.0,52,0.00,,SKC,0.00,VWS V14.01,2013-08-19 21:05:00,
2013-08-19 16:06:00,85.3,66.8,29.94,South,184,6.0,12.0,54,0.00,,SKC,0.00,VWS V14.01,2013-08-19 21:06:00,
2013-08-19 16:07:00,85.3,66.2,29.94,SSE,153,9.0,12.0,53,0.00,,SKC,0.00,VWS V14.01,2013-08-19 21:07:00,
2013-08-19 16:10:00,85.1,67.1,29.94,SSW,194,4.0,12.0,55,0.00,,SKC,0.00,VWS V14.01,2013-08-19 21:10:00,
2013-08-19 16:11:00,85.1,66.1,29.94,SSE,160,1.0,12.0,53,0.00,,SKC,0.00,VWS V14.01,2013-08-19 21:11:00,
2013-08-19 16:12:00,85.1,66.6,29.94,SSE,161,5.0,7.0,54,0.00,,SKC,0.00,VWS V14.01,2013-08-19 21:12:00,
2013-08-19 16:15:00,85.1,66.6,29.94,South,189,7.0,8.0,54,0.00,,SKC,0.00,VWS V14.01,2013-08-19 21:15:00,
2013-08-19 16:16:00,85.1,66.6,29.93,SSW,197,4.0,8.0,54,0.00,,SKC,0.00,VWS V14.01,2013-08-19 21:16:00,
2013-08-19 16:17:00,85.1,66.6,29.93,South,188,5.0,8.0,54,0.00,,SKC,0.00,VWS V14.01,2013-08-19 21:17:00,
2013-08-19 16:20:00,85.1,66.1,29.93,SSW,196,0.0,8.0,53,0.00,,SKC,0.00,VWS V14.01,2013-08-19 21:20:00,
2013-08-19 16:21:00,85.1,66.1,29.93,SSE,156,3.0,8.0,53,0.00,,SKC,0.00,VWS V14.01,2013-08-19 21:21:00,
2013-08-19 16:22:00,85.1,66.1,29.93,SE,137,4.0,9.0,53,0.00,,SKC,0.00,VWS V14.01,2013-08-19 21:22:00,
2013-08-19 16:25:00,85.1,66.1,29.93,SSW,202,5.0,12.0,53,0.00,,SKC,0.00,VWS V14.01,2013-08-19 21:25:00,
2013-08-19 16:26:00,85.1,66.1,29.93,SW,219,4.0,12.0,53,0.00,,SKC,0.00,VWS V14.01,2013-08-19 21:26:00,
2013-08-19 16:27:00,85.1,66.6,29.93,SSW,210,4.0,12.0,54,0.00,,SKC,0.00,VWS V14.01,2013-08-19 21:27:00,
2013-08-19 16:30:00,85.1,66.6,29.93,SE,144,0.0,12.0,54,0.00,,SKC,0.00,VWS V14.01,2013-08-19 21:30:00,
2013-08-19 16:31:00,85.1,65.5,29.93,SE,146,3.0,12.0,52,0.00,,SKC,0.00,VWS V14.01,2013-08-19 21:31:00,
2013-08-19 16:32:00,84.9,65.3,29.93,SSE,156,7.0,10.0,52,0.00,,SKC,0.00,VWS V14.01,2013-08-19 21:32:00,
2013-08-19 16:35:00,85.1,67.1,29.93,SSW,196,9.0,16.0,55,0.00,,SKC,0.00,VWS V14.01,2013-08-19 21:35:00,
2013-08-19 16:36:00,85.1,65.5,29.93,SSW,200,5.0,16.0,52,0.00,,SKC,0.00,VWS V14.01,2013-08-19 21:36:00,
2013-08-19 16:37:00,85.1,65.5,29.93,SSW,211,11.0,16.0,52,0.00,,SKC,0.00,VWS V14.01,2013-08-19 21:37:00,
2013-08-19 16:40:00,84.9,65.9,29.93,SSW,203,6.0,16.0,53,0.00,,SKC,0.00,VWS V14.01,2013-08-19 21:40:00,
2013-08-19 16:41:00,84.9,65.9,29.93,South,190,5.0,16.0,53,0.00,,SKC,0.00,VWS V14.01,2013-08-19 21:41:00,
2013-08-19 16:42:00,84.9,66.4,29.93,SSW,192,2.0,5.0,54,0.00,,SKC,0.00,VWS V14.01,2013-08-19 21:42:00,
2013-08-19 16:45:00,84.9,66.4,29.92,SSE,151,3.0,14.0,54,0.00,,SKC,0.00,VWS V14.01,2013-08-19 21:45:00,
2013-08-19 16:46:00,84.9,66.4,29.92,South,186,3.0,14.0,54,0.00,,SKC,0.00,VWS V14.01,2013-08-19 21:46:00,
2013-08-19 16:47:00,84.9,65.9,29.92,SSE,151,6.0,14.0,53,0.00,,SKC,0.00,VWS V14.01,2013-08-19 21:47:00,
2013-08-19 16:50:00,84.9,65.9,29.92,SSW,197,7.0,14.0,53,0.00,,SKC,0.00,VWS V14.01,2013-08-19 21:50:00,
2013-08-19 16:51:00,84.9,65.9,29.92,SSE,149,6.0,14.0,53,0.00,,SKC,0.00,VWS V14.01,2013-08-19 21:51:00,
2013-08-19 16:52:00,84.9,65.9,29.92,SSE,162,4.0,7.0,53,0.00,,SKC,0.00,VWS V14.01,2013-08-19 21:52:00,
2013-08-19 16:53:00,84.9,66.4,29.92,South,188,7.0,10.0,54,0.00,,SKC,0.00,VWS V14.01,2013-08-19 21:53:00,
2013-08-19 16:56:00,84.9,65.9,29.92,South,176,9.0,13.0,53,0.00,,SKC,0.00,VWS V14.01,2013-08-19 21:56:00,
2013-08-19 16:57:00,84.9,66.4,29.92,South,176,11.0,13.0,54,0.00,,SKC,0.00,VWS V14.01,2013-08-19 21:57:00,
2013-08-19 16:58:00,84.9,66.4,29.92,SSE,153,7.0,18.0,54,0.00,,SKC,0.00,VWS V14.01,2013-08-19 21:58:00,
2013-08-19 17:00:00,84.9,65.9,29.92,South,180,5.0,18.0,53,0.00,,---,0.00,VWS V14.01,2013-08-19 22:00:00,
2013-08-19 17:01:00,84.9,65.9,29.92,South,181,5.0,18.0,53,0.00,,SKC,0.00,VWS V14.01,2013-08-19 22:01:00,
2013-08-19 17:02:00,84.9,65.9,29.92,SSW,195,10.0,13.0,53,0.00,,SKC,0.00,VWS V14.01,2013-08-19 22:02:00,
2013-08-19 17:03:00,84.9,65.9,29.92,SSW,206,6.0,13.0,53,0.00,,SKC,0.00,VWS V14.01,2013-08-19 22:03:00,
2013-08-19 17:06:00,84.9,65.9,29.92,SSE,155,5.0,14.0,53,0.00,,SKC,0.00,VWS V14.01,2013-08-19 22:06:00,
2013-08-19 17:07:00,84.9,66.4,29.92,SSE,166,0.0,14.0,54,0.00,,SKC,0.00,VWS V14.01,2013-08-19 22:07:00,
2013-08-19 17:08:00,84.9,68.5,29.92,South,176,3.0,14.0,58,0.00,,SKC,0.00,VWS V14.01,2013-08-19 22:08:00,
2013-08-19 17:10:00,84.9,66.4,29.92,South,180,6.0,14.0,54,0.00,,---,0.00,VWS V14.01,2013-08-19 22:10:00,
2013-08-19 17:11:00,84.9,66.4,29.92,South,191,7.0,14.0,54,0.00,,SKC,0.00,VWS V14.01,2013-08-19 22:11:00,
2013-08-19 17:12:00,84.9,66.4,29.92,South,191,4.0,5.0,54,0.00,,SKC,0.00,VWS V14.01,2013-08-19 22:12:00,
2013-08-19 17:13:00,85.1,67.1,29.92,South,169,6.0,8.0,55,0.00,,SKC,0.00,VWS V14.01,2013-08-19 22:13:00,
2013-08-19 17:16:00,84.9,66.4,29.91,SSW,195,5.0,17.0,54,0.00,,SKC,0.00,VWS V14.01,2013-08-19 22:16:00,
2013-08-19 17:17:00,84.9,66.4,29.91,SSE,151,2.0,17.0,54,0.00,,SKC,0.00,VWS V14.01,2013-08-19 22:17:00,
2013-08-19 17:18:00,84.9,66.4,29.91,South,186,3.0,17.0,54,0.00,,SKC,0.00,VWS V14.01,2013-08-19 22:18:00,
2013-08-19 17:20:00,84.9,66.4,29.91,SSW,202,5.0,17.0,54,0.00,,---,0.00,VWS V14.01,2013-08-19 22:20:00,
2013-08-19 17:21:00,84.9,66.4,29.91,SSW,198,4.0,5.0,54,0.00,,SKC,0.00,VWS V14.01,2013-08-19 22:21:00,
2013-08-19 17:22:00,84.9,66.4,29.91,SSW,194,9.0,10.0,54,0.00,,SKC,0.00,VWS V14.01,2013-08-19 22:22:00,
2013-08-19 17:23:00,84.9,66.9,29.91,SSE,161,3.0,10.0,55,0.00,,SKC,0.00,VWS V14.01,2013-08-19 22:23:00,
2013-08-19 17:27:00,84.9,66.4,29.91,South,177,6.0,13.0,54,0.00,,SKC,0.00,VWS V14.01,2013-08-19 22:27:00,
2013-08-19 17:28:00,84.9,66.4,29.91,SSE,159,6.0,13.0,54,0.00,,SKC,0.00,VWS V14.01,2013-08-19 22:28:00,
2013-08-19 17:30:00,84.9,66.4,29.91,SSE,158,5.0,19.0,54,0.00,,---,0.00,VWS V14.01,2013-08-19 22:30:00,
2013-08-19 17:32:00,84.9,66.4,29.91,SSE,148,4.0,6.0,54,0.00,,SKC,0.00,VWS V14.01,2013-08-19 22:32:00,
2013-08-19 17:33:00,84.9,66.4,29.91,SSE,163,3.0,13.0,54,0.00,,SKC,0.00,VWS V14.01,2013-08-19 22:33:00,
2013-08-19 17:37:00,84.7,66.2,29.91,South,171,4.0,13.0,54,0.00,,SKC,0.00,VWS V14.01,2013-08-19 22:37:00,
2013-08-19 17:38:00,84.7,66.2,29.91,SSE,151,4.0,15.0,54,0.00,,SKC,0.00,VWS V14.01,2013-08-19 22:38:00,
2013-08-19 17:40:00,84.9,66.4,29.91,SSE,158,4.0,15.0,54,0.00,,---,0.00,VWS V14.01,2013-08-19 22:40:00,
2013-08-19 17:42:00,84.9,66.9,29.91,SSE,159,0.0,0.0,55,0.00,,SKC,0.00,VWS V14.01,2013-08-19 22:42:00,
2013-08-19 17:43:00,84.9,66.9,29.91,South,172,3.0,4.0,55,0.00,,SKC,0.00,VWS V14.01,2013-08-19 22:43:00,
2013-08-19 17:47:00,84.9,67.5,29.91,SSE,157,1.0,6.0,56,0.00,,SKC,0.00,VWS V14.01,2013-08-19 22:47:00,
2013-08-19 17:48:00,84.9,67.5,29.91,South,186,4.0,9.0,56,0.00,,SKC,0.00,VWS V14.01,2013-08-19 22:48:00,
2013-08-19 17:50:00,84.9,66.9,29.91,South,180,3.0,11.0,55,0.00,,---,0.00,VWS V14.01,2013-08-19 22:50:00,
2013-08-19 17:52:00,84.9,66.4,29.91,South,177,3.0,7.0,54,0.00,,SKC,0.00,VWS V14.01,2013-08-19 22:52:00,
2013-08-19 17:53:00,84.9,67.5,29.91,SSW,192,6.0,7.0,56,0.00,,SKC,0.00,VWS V14.01,2013-08-19 22:53:00,
2013-08-19 17:57:00,84.7,66.8,29.91,SSW,198,7.0,11.0,55,0.00,,SKC,0.00,VWS V14.01,2013-08-19 22:57:00,
2013-08-19 17:58:00,84.7,66.8,29.91,SSW,193,4.0,11.0,55,0.00,,SKC,0.00,VWS V14.01,2013-08-19 22:58:00,
2013-08-19 17:59:00,84.7,67.3,29.91,SSE,166,5.0,11.0,56,0.00,,SKC,0.00,VWS V14.01,2013-08-19 22:59:00,
2013-08-19 18:00:00,84.7,67.3,29.91,South,180,3.0,11.0,56,0.00,,---,0.00,VWS V14.01,2013-08-19 23:00:00,
2013-08-19 18:02:00,84.7,67.3,29.91,South,178,4.0,7.0,56,0.00,,SKC,0.00,VWS V14.01,2013-08-19 23:02:00,
2013-08-19 18:03:00,84.7,66.8,29.91,SSE,160,2.0,11.0,55,0.00,,SKC,0.00,VWS V14.01,2013-08-19 23:03:00,
2013-08-19 18:04:00,84.7,66.8,29.91,SSE,165,4.0,11.0,55,0.00,,SKC,0.00,VWS V14.01,2013-08-19 23:04:00,
2013-08-19 18:07:00,84.7,66.2,29.91,SSE,151,5.0,11.0,54,0.00,,SKC,0.00,VWS V14.01,2013-08-19 23:07:00,
2013-08-19 18:08:00,84.7,67.8,29.91,South,176,2.0,11.0,57,0.00,,SKC,0.00,VWS V14.01,2013-08-19 23:08:00,
2013-08-19 18:09:00,84.7,67.8,29.91,South,171,4.0,11.0,57,0.00,,SKC,0.00,VWS V14.01,2013-08-19 23:09:00,
2013-08-19 18:10:00,84.5,66.1,29.91,SSE,158,4.0,11.0,54,0.00,,---,0.00,VWS V14.01,2013-08-19 23:10:00,
2013-08-19 18:12:00,84.5,66.1,29.91,South,173,0.0,4.0,54,0.00,,SKC,0.00,VWS V14.01,2013-08-19 23:12:00,
2013-08-19 18:13:00,84.5,67.1,29.91,South,172,2.0,4.0,56,0.00,,SKC,0.00,VWS V14.01,2013-08-19 23:13:00,
2013-08-19 18:14:00,84.5,67.1,29.91,SSE,157,2.0,5.0,56,0.00,,SKC,0.00,VWS V14.01,2013-08-19 23:14:00,
2013-08-19 18:17:00,84.5,67.6,29.91,SSW,200,4.0,6.0,57,0.00,,SKC,0.00,VWS V14.01,2013-08-19 23:17:00,
2013-08-19 18:18:00,84.5,67.1,29.91,SSE,159,4.0,6.0,56,0.00,,SKC,0.00,VWS V14.01,2013-08-19 23:18:00,
2013-08-19 18:19:00,84.5,66.1,29.91,South,188,3.0,9.0,54,0.00,,SKC,0.00,VWS V14.01,2013-08-19 23:19:00,
2013-08-19 18:20:00,84.5,66.1,29.91,South,180,3.0,9.0,54,0.00,,---,0.00,VWS V14.01,2013-08-19 23:20:00,
2013-08-19 18:22:00,84.5,66.1,29.91,South,189,0.0,4.0,54,0.00,,SKC,0.00,VWS V14.01,2013-08-19 23:22:00,
2013-08-19 18:23:00,84.5,66.1,29.91,SSE,151,0.0,4.0,54,0.00,,SKC,0.00,VWS V14.01,2013-08-19 23:23:00,
2013-08-19 18:24:00,84.5,67.1,29.91,South,171,2.0,5.0,56,0.00,,SKC,0.00,VWS V14.01,2013-08-19 23:24:00,
2013-08-19 18:27:00,84.3,66.4,29.91,SSW,197,4.0,10.0,55,0.00,,SKC,0.00,VWS V14.01,2013-08-19 23:27:00,
2013-08-19 18:28:00,84.3,66.4,29.91,South,182,5.0,10.0,55,0.00,,SKC,0.00,VWS V14.01,2013-08-19 23:28:00,
2013-08-19 18:29:00,84.3,66.4,29.91,SSE,155,2.0,10.0,55,0.00,,SKC,0.00,VWS V14.01,2013-08-19 23:29:00,
2013-08-19 18:30:00,84.3,65.9,29.91,SSE,158,2.0,10.0,54,0.00,,---,0.00,VWS V14.01,2013-08-19 23:30:00,
2013-08-19 18:32:00,84.3,66.4,29.91,SSE,151,5.0,6.0,55,0.00,,SKC,0.00,VWS V14.01,2013-08-19 23:32:00,
2013-08-19 18:33:00,84.3,66.4,29.91,South,190,5.0,6.0,55,0.00,,SKC,0.00,VWS V14.01,2013-08-19 23:33:00,
2013-08-19 18:34:00,84.3,66.4,29.91,South,171,2.0,6.0,55,0.00,,SKC,0.00,VWS V14.01,2013-08-19 23:34:00,
2013-08-19 18:37:00,84.3,66.9,29.91,South,182,2.0,6.0,56,0.00,,SKC,0.00,VWS V14.01,2013-08-19 23:37:00,
2013-08-19 18:38:00,84.3,66.9,29.91,South,180,0.0,6.0,56,0.00,,SKC,0.00,VWS V14.01,2013-08-19 23:38:00,
2013-08-19 18:39:00,84.1,66.2,29.91,SSE,162,5.0,9.0,55,0.00,,SKC,0.00,VWS V14.01,2013-08-19 23:39:00,
2013-08-19 18:40:00,84.1,66.2,29.91,SSE,158,2.0,9.0,55,0.00,,---,0.00,VWS V14.01,2013-08-19 23:40:00,
2013-08-19 18:42:00,84.1,66.2,29.91,SSE,161,2.0,4.0,55,0.00,,SKC,0.00,VWS V14.01,2013-08-19 23:42:00,
2013-08-19 18:43:00,84.1,66.2,29.91,SSE,161,0.0,4.0,55,0.00,,SKC,0.00,VWS V14.01,2013-08-19 23:43:00,
2013-08-19 18:44:00,84.1,66.2,29.91,SSE,163,0.0,4.0,55,0.00,,SKC,0.00,VWS V14.01,2013-08-19 23:44:00,
2013-08-19 18:47:00,84.1,66.7,29.90,SSE,166,0.0,4.0,56,0.00,,SKC,0.00,VWS V14.01,2013-08-19 23:47:00,
2013-08-19 18:48:00,84.1,66.7,29.90,SSE,147,0.0,9.0,56,0.00,,SKC,0.00,VWS V14.01,2013-08-19 23:48:00,
2013-08-19 18:49:00,84.1,66.7,29.90,South,175,5.0,9.0,56,0.00,,SKC,0.00,VWS V14.01,2013-08-19 23:49:00,
2013-08-19 18:50:00,84.0,66.6,29.90,SSE,158,2.0,9.0,56,0.00,,---,0.00,VWS V14.01,2013-08-19 23:50:00,
2013-08-19 18:52:00,84.0,66.6,29.90,SSE,148,3.0,6.0,56,0.00,,SKC,0.00,VWS V14.01,2013-08-19 23:52:00,
2013-08-19 18:53:00,84.0,66.6,29.90,SSE,158,4.0,6.0,56,0.00,,SKC,0.00,VWS V14.01,2013-08-19 23:53:00,
2013-08-19 18:54:00,83.8,66.4,29.90,SSE,157,2.0,6.0,56,0.00,,SKC,0.00,VWS V14.01,2013-08-19 23:54:00,
2013-08-19 18:57:00,83.8,67.0,29.90,SSE,165,0.0,6.0,57,0.00,,SKC,0.00,VWS V14.01,2013-08-19 23:57:00,
2013-08-19 18:58:00,83.6,66.8,29.90,SSE,153,4.0,6.0,57,0.00,,SKC,0.00,VWS V14.01,2013-08-19 23:58:00,
2013-08-19 18:59:00,83.6,66.8,29.90,South,175,5.0,7.0,57,0.00,,SKC,0.00,VWS V14.01,2013-08-19 23:59:00,
2013-08-19 19:00:00,83.6,67.3,29.90,SSE,158,2.0,7.0,58,0.00,,---,0.00,VWS V14.01,2013-08-20 00:00:00,
2013-08-19 19:02:00,83.4,66.6,29.90,SSE,151,1.0,3.0,57,0.00,,SKC,0.00,VWS V14.01,2013-08-20 00:02:00,
2013-08-19 19:03:00,83.4,67.1,29.90,SSE,153,3.0,3.0,58,0.00,,SKC,0.00,VWS V14.01,2013-08-20 00:03:00,
2013-08-19 19:04:00,83.4,66.6,29.90,SSE,161,6.0,9.0,57,0.00,,SKC,0.00,VWS V14.01,2013-08-20 00:04:00,
2013-08-19 19:07:00,83.4,67.1,29.90,SSE,153,8.0,10.0,58,0.00,,SKC,0.00,VWS V14.01,2013-08-20 00:07:00,
2013-08-19 19:08:00,83.4,67.1,29.90,SSE,150,4.0,10.0,58,0.00,,SKC,0.00,VWS V14.01,2013-08-20 00:08:00,
2013-08-19 19:09:00,83.2,66.9,29.90,SSE,154,3.0,10.0,58,0.00,,SKC,0.00,VWS V14.01,2013-08-20 00:09:00,
2013-08-19 19:10:00,83.2,66.4,29.90,SSE,157,0.0,10.0,57,0.00,,SKC,0.00,VWS V14.01,2013-08-20 00:10:00,
2013-08-19 19:13:00,83.2,66.4,29.90,SSE,159,3.0,9.0,57,0.00,,SKC,0.00,VWS V14.01,2013-08-20 00:13:00,
2013-08-19 19:14:00,83.2,66.9,29.90,SSE,159,1.0,9.0,58,0.00,,SKC,0.00,VWS V14.01,2013-08-20 00:14:00,
2013-08-19 19:15:00,83.0,66.7,29.90,SSE,166,5.0,9.0,58,0.00,,SKC,0.00,VWS V14.01,2013-08-20 00:15:00,
2013-08-19 19:18:00,83.0,66.7,29.90,SSE,150,0.0,10.0,58,0.00,,SKC,0.00,VWS V14.01,2013-08-20 00:18:00,
2013-08-19 19:19:00,83.0,66.7,29.90,SSE,153,0.0,10.0,58,0.00,,SKC,0.00,VWS V14.01,2013-08-20 00:19:00,
2013-08-19 19:20:00,82.8,66.5,29.90,SSE,158,2.0,10.0,58,0.00,,---,0.00,VWS V14.01,2013-08-20 00:20:00,
2013-08-19 19:23:00,82.8,66.5,29.90,SSE,150,3.0,8.0,58,0.00,,SKC,0.00,VWS V14.01,2013-08-20 00:23:00,
2013-08-19 19:24:00,82.8,66.5,29.90,SSE,151,0.0,8.0,58,0.00,,SKC,0.00,VWS V14.01,2013-08-20 00:24:00,
2013-08-19 19:25:00,82.8,67.0,29.90,SSE,153,5.0,8.0,59,0.00,,SKC,0.00,VWS V14.01,2013-08-20 00:25:00,
2013-08-19 19:28:00,82.6,66.8,29.90,SSE,157,1.0,8.0,59,0.00,,SKC,0.00,VWS V14.01,2013-08-20 00:28:00,
2013-08-19 19:29:00,82.6,66.8,29.90,SSE,157,0.0,8.0,59,0.00,,SKC,0.00,VWS V14.01,2013-08-20 00:29:00,
2013-08-19 19:30:00,82.6,66.8,29.90,South,171,0.0,8.0,59,0.00,,SKC,0.00,VWS V14.01,2013-08-20 00:30:00,
2013-08-19 19:33:00,82.4,66.7,29.90,SSE,156,3.0,7.0,59,0.00,,SKC,0.00,VWS V14.01,2013-08-20 00:33:00,
2013-08-19 19:34:00,82.4,66.7,29.90,SSE,152,4.0,9.0,59,0.00,,SKC,0.00,VWS V14.01,2013-08-20 00:34:00,
2013-08-19 19:35:00,82.4,66.7,29.90,SSE,152,2.0,9.0,59,0.00,,SKC,0.00,VWS V14.01,2013-08-20 00:35:00,
2013-08-19 19:38:00,82.2,66.5,29.90,SSE,153,0.0,9.0,59,0.00,,SKC,0.00,VWS V14.01,2013-08-20 00:38:00,
2013-08-19 19:39:00,82.2,66.5,29.90,SSE,155,2.0,9.0,59,0.00,,SKC,0.00,VWS V14.01,2013-08-20 00:39:00,
2013-08-19 19:40:00,82.2,66.5,29.90,SSE,159,3.0,9.0,59,0.00,,SKC,0.00,VWS V14.01,2013-08-20 00:40:00,
2013-08-19 19:43:00,82.2,66.9,29.90,SSE,158,3.0,3.0,60,0.00,,SKC,0.00,VWS V14.01,2013-08-20 00:43:00,
2013-08-19 19:44:00,82.0,66.8,29.90,SSE,158,2.0,4.0,60,0.00,,SKC,0.00,VWS V14.01,2013-08-20 00:44:00,
2013-08-19 19:45:00,82.0,66.8,29.90,SSE,158,0.0,6.0,60,0.00,,SKC,0.00,VWS V14.01,2013-08-20 00:45:00,
2013-08-19 19:48:00,81.8,66.6,29.90,SSE,159,0.0,6.0,60,0.00,,SKC,0.00,VWS V14.01,2013-08-20 00:48:00,
2013-08-19 19:49:00,81.8,67.1,29.90,SSE,159,3.0,6.0,61,0.00,,SKC,0.00,VWS V14.01,2013-08-20 00:49:00,
2013-08-19 19:50:00,81.8,67.1,29.90,SSE,159,0.0,6.0,61,0.00,,SKC,0.00,VWS V14.01,2013-08-20 00:50:00,
2013-08-19 19:53:00,81.6,66.9,29.90,SSE,160,0.0,0.0,61,0.00,,SKC,0.00,VWS V14.01,2013-08-20 00:53:00,
2013-08-19 19:54:00,81.6,66.9,29.90,SSE,159,2.0,5.0,61,0.00,,SKC,0.00,VWS V14.01,2013-08-20 00:54:00,
2013-08-19 19:55:00,81.4,67.1,29.90,SSE,159,0.0,5.0,62,0.00,,SKC,0.00,VWS V14.01,2013-08-20 00:55:00,
2013-08-19 19:58:00,81.4,66.7,29.90,SSE,156,6.0,8.0,61,0.00,,SKC,0.00,VWS V14.01,2013-08-20 00:58:00,
2013-08-19 19:59:00,81.4,67.1,29.90,SSE,156,4.0,8.0,62,0.00,,SKC,0.00,VWS V14.01,2013-08-20 00:59:00,
2013-08-19 20:00:00,81.2,66.9,29.90,SSE,155,5.0,8.0,62,0.00,,SKC,0.00,VWS V14.01,2013-08-20 01:00:00,
2013-08-19 20:03:00,81.1,66.9,29.90,SSE,157,3.0,6.0,62,0.00,,SKC,0.00,VWS V14.01,2013-08-20 01:03:00,
2013-08-19 20:04:00,81.1,66.9,29.90,SSE,157,3.0,6.0,62,0.00,,SKC,0.00,VWS V14.01,2013-08-20 01:04:00,
2013-08-19 20:05:00,81.1,66.9,29.90,SSE,157,5.0,6.0,62,0.00,,SKC,0.00,VWS V14.01,2013-08-20 01:05:00,
2013-08-19 20:08:00,80.9,66.7,29.90,SSE,157,4.0,6.0,62,0.00,,SKC,0.00,VWS V14.01,2013-08-20 01:08:00,
2013-08-19 20:09:00,80.9,66.7,29.90,SSE,157,4.0,6.0,62,0.00,,SKC,0.00,VWS V14.01,2013-08-20 01:09:00,
2013-08-19 20:10:00,80.7,66.5,29.90,SSE,155,7.0,7.0,62,0.00,,SKC,0.00,VWS V14.01,2013-08-20 01:10:00,
2013-08-19 20:13:00,80.7,66.9,29.90,SSE,155,4.0,6.0,63,0.00,,SKC,0.00,VWS V14.01,2013-08-20 01:13:00,
2013-08-19 20:14:00,80.7,66.9,29.90,SSE,155,5.0,6.0,63,0.00,,SKC,0.00,VWS V14.01,2013-08-20 01:14:00,
2013-08-19 20:15:00,80.5,66.8,29.90,SE,146,7.0,7.0,63,0.00,,SKC,0.00,VWS V14.01,2013-08-20 01:15:00,
2013-08-19 20:18:00,80.3,67.0,29.90,SE,146,5.0,8.0,64,0.00,,SKC,0.00,VWS V14.01,2013-08-20 01:18:00,
2013-08-19 20:19:00,80.3,67.0,29.90,SE,146,5.0,8.0,64,0.00,,SKC,0.00,VWS V14.01,2013-08-20 01:19:00,
2013-08-19 20:20:00,80.3,67.0,29.90,SE,146,2.0,8.0,64,0.00,,SKC,0.00,VWS V14.01,2013-08-20 01:20:00,
2013-08-19 20:23:00,80.1,67.3,29.90,SE,146,4.0,5.0,65,0.00,,SKC,0.00,VWS V14.01,2013-08-20 01:23:00,
2013-08-19 20:24:00,79.9,67.1,29.90,SE,146,3.0,5.0,65,0.00,,SKC,0.00,VWS V14.01,2013-08-20 01:24:00,
2013-08-19 20:25:00,79.9,67.1,29.90,SE,146,3.0,5.0,65,0.00,,SKC,0.00,VWS V14.01,2013-08-20 01:25:00,
2013-08-19 20:28:00,79.6,67.2,29.90,SE,146,3.0,5.0,66,0.00,,SKC,0.00,VWS V14.01,2013-08-20 01:28:00,
2013-08-19 20:29:00,79.6,67.2,29.90,SE,146,3.0,5.0,66,0.00,,SKC,0.00,VWS V14.01,2013-08-20 01:29:00,
2013-08-19 20:30:00,79.4,67.1,29.90,SE,146,3.0,5.0,66,0.00,,SKC,0.00,VWS V14.01,2013-08-20 01:30:00,
2013-08-19 20:33:00,79.4,67.1,29.90,SE,146,4.0,5.0,66,0.00,,SKC,0.00,VWS V14.01,2013-08-20 01:33:00,
2013-08-19 20:34:00,79.4,67.5,29.90,SE,146,4.0,5.0,67,0.00,,SKC,0.00,VWS V14.01,2013-08-20 01:34:00,
2013-08-19 20:35:00,79.2,67.3,29.90,SE,145,4.0,6.0,67,0.00,,SKC,0.00,VWS V14.01,2013-08-20 01:35:00,
2013-08-19 20:39:00,79.0,67.6,29.90,SE,143,4.0,6.0,68,0.00,,SKC,0.00,VWS V14.01,2013-08-20 01:39:00,
2013-08-19 20:40:00,78.6,67.2,29.90,SE,135,4.0,6.0,68,0.00,,---,0.00,VWS V14.01,2013-08-20 01:40:00,
2013-08-19 20:41:00,78.8,67.4,29.90,SE,142,5.0,6.0,68,0.00,,SKC,0.00,VWS V14.01,2013-08-20 01:41:00,
2013-08-19 20:44:00,78.5,67.5,29.90,SE,141,3.0,5.0,69,0.00,,SKC,0.00,VWS V14.01,2013-08-20 01:44:00,
2013-08-19 20:46:00,78.5,67.5,29.91,SE,141,5.0,6.0,69,0.00,,SKC,0.00,VWS V14.01,2013-08-20 01:46:00,
2013-08-19 20:49:00,78.3,67.3,29.91,SE,140,2.0,6.0,69,0.00,,SKC,0.00,VWS V14.01,2013-08-20 01:49:00,
2013-08-19 20:50:00,78.1,67.5,29.91,SE,135,4.0,6.0,70,0.00,,---,0.00,VWS V14.01,2013-08-20 01:50:00,
2013-08-19 20:51:00,78.3,67.7,29.91,SE,140,3.0,6.0,70,0.00,,SKC,0.00,VWS V14.01,2013-08-20 01:51:00,
2013-08-19 20:54:00,78.1,67.5,29.91,SE,140,3.0,5.0,70,0.00,,SKC,0.00,VWS V14.01,2013-08-20 01:54:00,
2013-08-19 20:55:00,78.1,67.5,29.91,SE,138,4.0,5.0,70,0.00,,SKC,0.00,VWS V14.01,2013-08-20 01:55:00,
2013-08-19 20:56:00,77.9,67.3,29.91,SE,136,6.0,6.0,70,0.00,,SKC,0.00,VWS V14.01,2013-08-20 01:56:00,
2013-08-19 20:59:00,77.7,67.6,29.91,SE,136,3.0,6.0,71,0.00,,SKC,0.00,VWS V14.01,2013-08-20 01:59:00,
2013-08-19 21:00:00,77.7,67.6,29.91,SE,136,5.0,6.0,71,0.00,,SKC,0.00,VWS V14.01,2013-08-20 02:00:00,
2013-08-19 21:01:00,77.6,67.5,29.91,SE,135,5.0,6.0,71,0.00,,SKC,0.00,VWS V14.01,2013-08-20 02:01:00,
2013-08-19 21:04:00,77.4,67.7,29.91,SE,135,5.0,6.0,72,0.00,,SKC,0.00,VWS V14.01,2013-08-20 02:04:00,
2013-08-19 21:05:00,77.4,67.7,29.91,SE,135,6.0,6.0,72,0.00,,SKC,0.00,VWS V14.01,2013-08-20 02:05:00,
2013-08-19 21:06:00,77.2,67.5,29.91,SE,135,5.0,6.0,72,0.00,,SKC,0.00,VWS V14.01,2013-08-20 02:06:00,
2013-08-19 21:09:00,77.0,67.7,29.91,SE,135,4.0,6.0,73,0.00,,SKC,0.00,VWS V14.01,2013-08-20 02:09:00,
2013-08-19 21:10:00,76.8,67.5,29.91,SE,135,5.0,6.0,73,0.00,,SKC,0.00,VWS V14.01,2013-08-20 02:10:00,
2013-08-19 21:11:00,76.7,67.4,29.91,SE,134,5.0,6.0,73,0.00,,SKC,0.00,VWS V14.01,2013-08-20 02:11:00,
2013-08-19 21:14:00,76.5,67.6,29.91,SE,133,6.0,6.0,74,0.00,,SKC,0.00,VWS V14.01,2013-08-20 02:14:00,
2013-08-19 21:15:00,76.5,67.6,29.91,SE,132,7.0,7.0,74,0.00,,SKC,0.00,VWS V14.01,2013-08-20 02:15:00,
2013-08-19 21:16:00,76.5,67.6,29.91,SE,132,6.0,7.0,74,0.00,,SKC,0.00,VWS V14.01,2013-08-20 02:16:00,
2013-08-19 21:19:00,76.3,67.4,29.91,SE,129,5.0,7.0,74,0.00,,SKC,0.00,VWS V14.01,2013-08-20 02:19:00,
2013-08-19 21:20:00,76.3,67.4,29.91,SE,129,5.0,7.0,74,0.00,,SKC,0.00,VWS V14.01,2013-08-20 02:20:00,
2013-08-19 21:21:00,76.1,67.6,29.91,SE,130,5.0,6.0,75,0.00,,SKC,0.00,VWS V14.01,2013-08-20 02:21:00,
2013-08-19 21:24:00,76.0,67.5,29.91,SE,130,6.0,9.0,75,0.00,,SKC,0.00,VWS V14.01,2013-08-20 02:24:00,
2013-08-19 21:25:00,76.0,67.5,29.91,SE,130,5.0,9.0,75,0.00,,SKC,0.00,VWS V14.01,2013-08-20 02:25:00,
2013-08-19 21:26:00,76.0,67.5,29.91,SE,131,5.0,9.0,75,0.00,,SKC,0.00,VWS V14.01,2013-08-20 02:26:00,
2013-08-19 21:29:00,76.0,67.5,29.91,SE,130,5.0,10.0,75,0.00,,SKC,0.00,VWS V14.01,2013-08-20 02:29:00,
2013-08-19 21:30:00,76.0,67.5,29.91,SE,130,6.0,10.0,75,0.00,,SKC,0.00,VWS V14.01,2013-08-20 02:30:00,
2013-08-19 21:31:00,76.0,67.5,29.92,SE,133,9.0,9.0,75,0.00,,SKC,0.00,VWS V14.01,2013-08-20 02:31:00,
2013-08-19 21:34:00,76.1,67.6,29.92,SE,140,6.0,9.0,75,0.00,,SKC,0.00,VWS V14.01,2013-08-20 02:34:00,
2013-08-19 21:35:00,76.1,67.6,29.92,SE,139,6.0,9.0,75,0.00,,SKC,0.00,VWS V14.01,2013-08-20 02:35:00,
2013-08-19 21:36:00,76.0,67.5,29.92,SE,138,5.0,9.0,75,0.00,,SKC,0.00,VWS V14.01,2013-08-20 02:36:00,
2013-08-19 21:39:00,76.0,67.5,29.92,SE,134,6.0,9.0,75,0.00,,SKC,0.00,VWS V14.01,2013-08-20 02:39:00,
2013-08-19 21:40:00,76.0,67.5,29.92,SE,134,7.0,9.0,75,0.00,,SKC,0.00,VWS V14.01,2013-08-20 02:40:00,
2013-08-19 21:41:00,76.0,67.5,29.92,SE,134,6.0,6.0,75,0.00,,SKC,0.00,VWS V14.01,2013-08-20 02:41:00,
2013-08-19 21:44:00,75.8,67.3,29.92,SE,134,8.0,9.0,75,0.00,,SKC,0.00,VWS V14.01,2013-08-20 02:44:00,
2013-08-19 21:45:00,75.8,67.3,29.92,SE,136,6.0,10.0,75,0.00,,SKC,0.00,VWS V14.01,2013-08-20 02:45:00,
2013-08-19 21:46:00,75.8,67.3,29.93,SE,137,5.0,10.0,75,0.00,,SKC,0.00,VWS V14.01,2013-08-20 02:46:00,
2013-08-19 21:49:00,75.8,67.7,29.93,SE,141,4.0,10.0,76,0.00,,SKC,0.00,VWS V14.01,2013-08-20 02:49:00,
2013-08-19 21:50:00,75.8,67.7,29.93,SE,139,6.0,10.0,76,0.00,,SKC,0.00,VWS V14.01,2013-08-20 02:50:00,
2013-08-19 21:51:00,75.8,67.7,29.93,SE,138,7.0,7.0,76,0.00,,SKC,0.00,VWS V14.01,2013-08-20 02:51:00,
2013-08-19 21:54:00,75.8,67.3,29.93,SSE,147,11.0,12.0,75,0.00,,SKC,0.00,VWS V14.01,2013-08-20 02:54:00,
2013-08-19 21:55:00,75.8,67.3,29.93,SE,142,6.0,12.0,75,0.00,,SKC,0.00,VWS V14.01,2013-08-20 02:55:00,
2013-08-19 21:56:00,75.8,67.3,29.93,SE,138,6.0,12.0,75,0.00,,SKC,0.00,VWS V14.01,2013-08-20 02:56:00,
2013-08-19 21:59:00,76.0,67.5,29.93,SE,146,9.0,12.0,75,0.00,,SKC,0.00,VWS V14.01,2013-08-20 02:59:00,
2013-08-19 22:00:00,76.0,67.5,29.93,SE,146,10.0,12.0,75,0.00,,SKC,0.00,VWS V14.01,2013-08-20 03:00:00,
2013-08-19 22:01:00,75.8,67.3,29.93,SSE,153,8.0,8.0,75,0.00,,SKC,0.00,VWS V14.01,2013-08-20 03:01:00,
2013-08-19 22:04:00,75.8,67.3,29.93,SE,134,7.0,12.0,75,0.00,,SKC,0.00,VWS V14.01,2013-08-20 03:04:00,
2013-08-19 22:05:00,75.8,67.3,29.93,SE,134,12.0,13.0,75,0.00,,SKC,0.00,VWS V14.01,2013-08-20 03:05:00,
2013-08-19 22:06:00,75.8,67.3,29.93,SSE,151,11.0,13.0,75,0.00,,SKC,0.00,VWS V14.01,2013-08-20 03:06:00,
2013-08-19 22:09:00,75.8,67.3,29.93,SSE,152,11.0,13.0,75,0.00,,SKC,0.00,VWS V14.01,2013-08-20 03:09:00,
2013-08-19 22:10:00,75.8,67.3,29.93,SE,146,9.0,13.0,75,0.00,,SKC,0.00,VWS V14.01,2013-08-20 03:10:00,
2013-08-19 22:11:00,75.8,66.9,29.93,SSE,152,7.0,7.0,74,0.00,,SKC,0.00,VWS V14.01,2013-08-20 03:11:00,
2013-08-19 22:14:00,75.8,66.9,29.93,SSE,148,7.0,12.0,74,0.00,,SKC,0.00,VWS V14.01,2013-08-20 03:14:00,
2013-08-19 22:15:00,75.6,67.1,29.93,SSE,153,9.0,12.0,75,0.00,,SKC,0.00,VWS V14.01,2013-08-20 03:15:00,
2013-08-19 22:16:00,75.6,67.1,29.92,SE,144,6.0,12.0,75,0.00,,SKC,0.00,VWS V14.01,2013-08-20 03:16:00,
2013-08-19 22:20:00,75.6,67.1,29.92,SSE,150,10.0,12.0,75,0.00,,SKC,0.00,VWS V14.01,2013-08-20 03:20:00,
2013-08-19 22:22:00,75.4,66.9,29.92,SSE,147,2.0,5.0,75,0.00,,SKC,0.00,VWS V14.01,2013-08-20 03:22:00,
2013-08-19 22:25:00,75.4,66.9,29.92,SE,144,5.0,9.0,75,0.00,,SKC,0.00,VWS V14.01,2013-08-20 03:25:00,
2013-08-19 22:27:00,75.3,66.8,29.92,SSE,157,6.0,9.0,75,0.00,,SKC,0.00,VWS V14.01,2013-08-20 03:27:00,
2013-08-19 22:30:00,75.1,67.0,29.92,SSE,153,5.0,11.0,76,0.00,,SKC,0.00,VWS V14.01,2013-08-20 03:30:00,
2013-08-19 22:32:00,75.1,67.0,29.93,SSE,153,9.0,10.0,76,0.00,,SKC,0.00,VWS V14.01,2013-08-20 03:32:00,
2013-08-19 22:35:00,75.1,67.0,29.93,SSE,155,4.0,11.0,76,0.00,,SKC,0.00,VWS V14.01,2013-08-20 03:35:00,
2013-08-19 22:37:00,75.1,67.0,29.93,SSE,155,9.0,11.0,76,0.00,,SKC,0.00,VWS V14.01,2013-08-20 03:37:00,
2013-08-19 22:40:00,75.1,67.0,29.93,SSE,151,5.0,11.0,76,0.00,,SKC,0.00,VWS V14.01,2013-08-20 03:40:00,
2013-08-19 22:41:00,75.1,67.0,29.93,SSE,150,8.0,11.0,76,0.00,,SKC,0.00,VWS V14.01,2013-08-20 03:41:00,
2013-08-19 22:42:00,75.1,67.0,29.93,SSE,154,4.0,7.0,76,0.00,,SKC,0.00,VWS V14.01,2013-08-20 03:42:00,
2013-08-19 22:45:00,74.9,66.8,29.93,SE,144,6.0,10.0,76,0.00,,SKC,0.00,VWS V14.01,2013-08-20 03:45:00,
2013-08-19 22:46:00,74.9,66.8,29.93,SE,144,4.0,10.0,76,0.00,,SKC,0.00,VWS V14.01,2013-08-20 03:46:00,
2013-08-19 22:47:00,74.9,66.8,29.93,SSE,148,7.0,10.0,76,0.00,,SKC,0.00,VWS V14.01,2013-08-20 03:47:00,
2013-08-19 22:50:00,74.9,66.8,29.93,SSE,150,7.0,10.0,76,0.00,,SKC,0.00,VWS V14.01,2013-08-20 03:50:00,
2013-08-19 22:51:00,74.9,66.8,29.93,SSE,151,3.0,10.0,76,0.00,,SKC,0.00,VWS V14.01,2013-08-20 03:51:00,
2013-08-19 22:52:00,74.9,66.8,29.93,SSE,151,5.0,7.0,76,0.00,,SKC,0.00,VWS V14.01,2013-08-20 03:52:00,
2013-08-19 22:55:00,74.7,66.6,29.93,SSE,153,6.0,11.0,76,0.00,,SKC,0.00,VWS V14.01,2013-08-20 03:55:00,
2013-08-19 22:56:00,74.7,66.6,29.93,SE,145,3.0,11.0,76,0.00,,SKC,0.00,VWS V14.01,2013-08-20 03:56:00,
2013-08-19 22:57:00,74.7,66.6,29.93,SSE,156,5.0,11.0,76,0.00,,SKC,0.00,VWS V14.01,2013-08-20 03:57:00,
2013-08-19 23:00:00,74.7,66.6,29.93,SSE,154,1.0,13.0,76,0.00,,SKC,0.00,VWS V14.01,2013-08-20 04:00:00,
2013-08-19 23:01:00,74.7,66.6,29.93,SSE,153,5.0,13.0,76,0.00,,SKC,0.00,VWS V14.01,2013-08-20 04:01:00,
2013-08-19 23:06:00,74.6,66.5,29.93,SSE,152,6.0,8.0,76,0.00,,SKC,0.00,VWS V14.01,2013-08-20 04:06:00,
2013-08-19 23:11:00,74.4,66.3,29.93,SSE,158,2.0,11.0,76,0.00,,SKC,0.00,VWS V14.01,2013-08-20 04:11:00,
2013-08-19 23:16:00,74.2,66.2,29.93,SSE,156,3.0,9.0,76,0.00,,SKC,0.00,VWS V14.01,2013-08-20 04:16:00,
2013-08-19 23:20:00,74.2,66.2,29.93,SSE,158,4.0,10.0,76,0.00,,---,0.00,VWS V14.01,2013-08-20 04:20:00,
2013-08-19 23:21:00,74.2,66.2,29.93,SSE,158,1.0,10.0,76,0.00,,SKC,0.00,VWS V14.01,2013-08-20 04:21:00,
2013-08-19 23:26:00,74.0,66.3,29.93,SSE,152,4.0,9.0,77,0.00,,SKC,0.00,VWS V14.01,2013-08-20 04:26:00,
2013-08-19 23:30:00,73.9,66.2,29.94,SSE,158,5.0,10.0,77,0.00,,---,0.00,VWS V14.01,2013-08-20 04:30:00,
2013-08-19 23:31:00,73.9,66.2,29.94,SSE,157,1.0,10.0,77,0.00,,SKC,0.00,VWS V14.01,2013-08-20 04:31:00,
2013-08-19 23:36:00,73.9,66.2,29.94,SSE,154,5.0,10.0,77,0.00,,SKC,0.00,VWS V14.01,2013-08-20 04:36:00,
2013-08-19 23:40:00,73.7,66.4,29.94,SSE,158,4.0,10.0,78,0.00,,---,0.00,VWS V14.01,2013-08-20 04:40:00,
2013-08-19 23:41:00,73.7,66.4,29.94,SSE,155,2.0,10.0,78,0.00,,SKC,0.00,VWS V14.01,2013-08-20 04:41:00,
2013-08-19 23:46:00,73.5,66.2,29.94,SSE,154,0.0,8.0,78,0.00,,SKC,0.00,VWS V14.01,2013-08-20 04:46:00,
2013-08-19 23:47:00,73.5,66.2,29.94,SSE,153,6.0,8.0,78,0.00,,SKC,0.00,VWS V14.01,2013-08-20 04:47:00,
2013-08-19 23:50:00,73.3,66.4,29.94,SSE,158,4.0,10.0,79,0.00,,---,0.00,VWS V14.01,2013-08-20 04:50:00,
2013-08-19 23:51:00,73.3,66.4,29.94,SSE,153,6.0,10.0,79,0.00,,SKC,0.00,VWS V14.01,2013-08-20 04:51:00,
2013-08-19 23:52:00,73.3,66.4,29.94,SSE,153,1.0,6.0,79,0.00,,SKC,0.00,VWS V14.01,2013-08-20 04:52:00,
2013-08-19 23:56:00,73.2,66.3,29.94,SSE,153,4.0,12.0,79,0.00,,SKC,0.00,VWS V14.01,2013-08-20 04:56:00,
2013-08-19 23:57:00,73.2,66.3,29.94,SSE,153,1.0,12.0,79,0.00,,SKC,0.00,VWS V14.01,2013-08-20 04:57:00,